AE5VO-5 Weather Reports


Display with metric or nautical units.
time (UTC)temp
F
wind
direction
speed
MPH
gust
MPH
rain 1hr
in
rain 24hr
in
rain mn
in
humidity
%
barometer
mb
20181019175822 48 145 3.0 9.0 0.05 0.52 0.52 94 1023.7
20181019175741 48 150 3.0 9.0 0.05 0.52 0.52 94 1023.6
20181019175617 48 179 4.0 9.0 0.05 0.52 0.52 94 1023.7
20181019175528 48 229 4.0 9.0 0.05 0.52 0.52 94 1023.8
20181019175420 48 200 5.0 9.0 0.04 0.51 0.51 94 1023.9
20181019175314 48 194 6.0 9.0 0.04 0.51 0.51 94 1024.0
20181019175222 48 191 6.0 9.0 0.04 0.51 0.51 94 1024.0
20181019175114 48 167 5.0 9.0 0.03 0.50 0.50 94 1024.0
20181019175025 48 178 4.0 9.0 0.03 0.50 0.50 94 1024.0
20181019174918 48 180 5.0 9.0 0.03 0.50 0.50 94 1024.0
20181019174812 48 185 7.0 9.0 0.03 0.50 0.50 94 1024.0
20181019174720 48 198 6.0 9.0 0.03 0.50 0.50 94 1024.0
20181019174631 48 203 4.0 9.0 0.03 0.50 0.50 94 1024.0
20181019174524 48 184 3.0 9.0 0.03 0.50 0.50 94 1024.1
20181019174415 48 187 4.0 9.0 0.02 0.49 0.49 94 1024.2
20181019174330 48 209 4.0 9.0 0.02 0.49 0.49 94 1024.2
20181019174217 48 200 5.0 9.0 0.02 0.49 0.49 94 1024.2
20181019174128 48 240 5.0 9.0 0.02 0.49 0.49 94 1024.2
20181019174020 48 239 4.0 9.0 0.02 0.49 0.49 94 1024.3
20181019173930 48 214 3.0 8.0 0.02 0.49 0.49 94 1024.3
20181019173827 48 180 4.0 8.0 0.02 0.49 0.49 94 1024.2
20181019173714 48 250 4.0 9.0 0.02 0.49 0.49 94 1024.3
20181019173625 48 178 3.0 9.0 0.01 0.48 0.48 94 1024.3
20181019173517 48 156 2.0 9.0 0.01 0.48 0.48 94 1024.3
20181019173427 48 196 2.0 9.0 0.01 0.48 0.48 94 1024.4
20181019173323 48 196 3.0 9.0 0.01 0.48 0.48 94 1024.4
20181019173230 48 194 4.0 9.0 0.01 0.48 0.48 94 1024.4
20181019173121 48 246 5.0 8.0 0.01 0.48 0.48 94 1024.4
20181019173013 48 254 4.0 8.0 0.01 0.48 0.48 94 1024.4
20181019172924 48 178 4.0 8.0 0.01 0.48 0.48 94 1024.4
20181019172820 48 205 5.0 8.0 0.01 0.48 0.48 94 1024.4
20181019172728 48 196 5.0 8.0 0.01 0.48 0.48 94 1024.4
20181019172619 48 167 5.0 8.0 0.01 0.48 0.48 94 1024.5
20181019172532 48 217 5.0 8.0 0.01 0.48 0.48 94 1024.5
20181019172423 48 242 4.0 8.0 0.01 0.48 0.48 94 1024.5
20181019172318 48 209 4.0 8.0 0.01 0.48 0.48 94 1024.6
20181019172225 48 184 5.0 8.0 0.01 0.48 0.48 94 1024.6
20181019172116 48 242 4.0 9.0 0.01 0.48 0.48 94 1024.6
20181019172028 48 182 4.0 9.0 0.00 0.47 0.47 94 1024.7
20181019171920 48 188 5.0 9.0 0.00 0.47 0.47 94 1024.7
20181019171816 48 162 4.0 9.0 0.00 0.47 0.47 94 1024.7
20181019171722 48 241 4.0 9.0 0.00 0.47 0.47 94 1024.7
20181019171615 48 184 5.0 9.0 0.00 0.47 0.47 94 1024.7
20181019171525 48 157 6.0 9.0 0.00 0.47 0.47 94 1024.7
20181019171418 48 205 6.0 9.0 0.00 0.47 0.47 94 1024.8
20181019171312 48 195 5.0 9.0 0.00 0.47 0.47 94 1024.8
20181019171220 48 242 5.0 9.0 0.00 0.47 0.47 94 1024.8
20181019171112 48 248 6.0 9.0 0.00 0.47 0.47 94 1024.8
20181019171024 48 177 6.0 9.0 0.00 0.47 0.47 94 1024.8
20181019170915 48 205 5.0 9.0 0.00 0.47 0.47 94 1024.8
20181019170832 48 202 5.0 9.0 0.00 0.47 0.47 94 1024.8
20181019170720 48 195 4.0 9.0 0.00 0.47 0.47 94 1024.9
20181019170613 48 207 5.0 9.0 0.00 0.47 0.47 94 1024.9
20181019170524 48 178 6.0 9.0 0.00 0.47 0.47 94 1024.9
20181019170416 48 209 5.0 9.0 0.00 0.47 0.47 94 1024.9
20181019170332 48 225 5.0 10.0 0.00 0.47 0.47 94 1024.9
20181019170220 48 217 6.0 10.0 0.00 0.47 0.47 94 1024.9
20181019170131 48 242 6.0 10.0 0.00 0.47 0.47 94 1024.9
20181019170023 48 207 5.0 10.0 0.00 0.47 0.47 94 1024.9
20181019165915 48 205 4.0 10.0 0.00 0.47 0.47 94 1024.9
20181019165832 48 194 4.0 10.0 0.00 0.47 0.47 94 1024.9
20181019165730 48 224 4.0 10.0 0.00 0.47 0.47 94 1025.0
20181019165628 48 222 4.0 10.0 0.00 0.47 0.47 94 1025.0
20181019165519 48 176 5.0 10.0 0.00 0.47 0.47 94 1024.9
20181019165430 48 174 5.0 10.0 0.00 0.47 0.47 94 1024.9
20181019165326 48 192 6.0 10.0 0.00 0.47 0.47 94 1025.0
20181019165214 48 216 6.0 10.0 0.00 0.47 0.47 94 1024.9
20181019165125 48 263 5.0 9.0 0.01 0.47 0.47 94 1024.9
20181019165017 48 174 5.0 9.0 0.01 0.47 0.47 94 1024.9
20181019164928 48 208 5.0 9.0 0.01 0.47 0.47 94 1024.9
20181019164824 48 180 6.0 9.0 0.01 0.47 0.47 94 1024.9
20181019164731 48 207 5.0 9.0 0.01 0.47 0.47 94 1025.0
20181019164622 48 219 5.0 9.0 0.01 0.47 0.47 94 1025.0
20181019164514 48 209 6.0 9.0 0.01 0.47 0.47 94 1025.0
20181019164425 48 185 6.0 9.0 0.01 0.47 0.47 94 1025.1
20181019164320 48 191 5.0 10.0 0.01 0.47 0.47 94 1025.1
20181019164227 48 181 5.0 10.0 0.01 0.47 0.47 94 1025.1
20181019164119 48 229 6.0 10.0 0.01 0.47 0.47 94 1025.1
20181019164030 48 210 6.0 10.0 0.02 0.47 0.47 94 1025.1
20181019163921 48 190 6.0 10.0 0.02 0.47 0.47 93 1025.1
20181019163818 48 206 6.0 10.0 0.02 0.47 0.47 93 1025.2
20181019163725 48 180 5.0 10.0 0.02 0.47 0.47 93 1025.1
20181019163616 47 191 6.0 10.0 0.02 0.47 0.47 93 1025.1
20181019163529 48 203 7.0 10.0 0.02 0.47 0.47 93 1025.1
20181019163420 48 170 7.0 10.0 0.02 0.47 0.47 93 1025.1
20181019163315 48 194 5.0 9.0 0.02 0.47 0.47 93 1025.1
20181019163224 48 182 6.0 9.0 0.02 0.47 0.47 93 1025.1
20181019163115 48 188 6.0 9.0 0.02 0.47 0.47 93 1025.1
20181019163027 48 190 6.0 10.0 0.02 0.47 0.47 93 1025.2
20181019162920 48 190 5.0 10.0 0.03 0.47 0.47 94 1025.2
20181019162816 48 172 4.0 9.0 0.03 0.47 0.47 93 1025.2
20181019162723 48 229 5.0 9.0 0.03 0.47 0.47 93 1025.2
20181019162614 48 179 6.0 9.0 0.03 0.47 0.47 94 1025.2
20181019162526 48 209 5.0 9.0 0.04 0.47 0.47 94 1025.3
20181019162417 48 229 4.0 9.0 0.06 0.47 0.47 94 1025.3
20181019162313 48 188 3.0 8.0 0.07 0.47 0.47 94 1025.3
20181019162220 48 193 2.0 8.0 0.09 0.47 0.47 93 1025.3
20181019162132 48 199 3.0 8.0 0.10 0.47 0.47 93 1025.2
20181019162022 48 177 3.0 8.0 0.11 0.47 0.47 93 1025.3
20181019161914 48 246 4.0 8.0 0.11 0.47 0.47 93 1025.3
20181019161827 48 252 3.0 7.0 0.11 0.47 0.47 93 1025.3
20181019161718 47 185 5.0 7.0 0.11 0.47 0.47 93 1025.3
20181019161628 47 188 5.0 7.0 0.12 0.47 0.47 93 1025.3
20181019161520 47 199 4.0 7.0 0.12 0.47 0.47 93 1025.3
20181019161431 47 188 3.0 6.0 0.13 0.47 0.47 93 1025.3
20181019161323 47 182 3.0 6.0 0.14 0.47 0.47 93 1025.3
20181019161214 47 198 3.0 6.0 0.14 0.47 0.47 93 1025.3
20181019161125 47 200 2.0 6.0 0.14 0.47 0.47 93 1025.4
20181019161015 47 185 2.0 6.0 0.14 0.47 0.47 93 1025.3
20181019160927 47 182 3.0 6.0 0.14 0.47 0.47 93 1025.3
20181019160819 47 207 4.0 6.0 0.14 0.47 0.47 93 1025.4
20181019160731 47 198 4.0 6.0 0.14 0.47 0.47 93 1025.4
20181019160623 47 222 3.0 6.0 0.14 0.47 0.47 93 1025.4
20181019160514 47 192 4.0 6.0 0.14 0.47 0.47 93 1025.4
20181019160425 47 191 4.0 6.0 0.14 0.47 0.47 93 1025.4
20181019160318 47 212 4.0 7.0 0.15 0.47 0.47 93 1025.4
20181019160229 47 248 4.0 7.0 0.15 0.47 0.47 93 1025.4
20181019160119 47 205 3.0 7.0 0.15 0.47 0.47 93 1025.5
20181019160032 47 204 3.0 7.0 0.15 0.47 0.47 93 1025.4
20181019155922 47 218 2.0 7.0 0.16 0.47 0.47 93 1025.5
20181019155815 47 250 1.0 7.0 0.16 0.47 0.47 93 1025.5
20181019155736 47 250 2.0 7.0 0.16 0.47 0.47 93 1025.6
20181019155612 47 240 4.0 7.0 0.16 0.47 0.47 93 1025.5
20181019155524 47 178 4.0 7.0 0.16 0.47 0.47 93 1025.5
20181019155415 48 193 3.0 6.0 0.16 0.47 0.47 93 1025.7
20181019155327 48 187 2.0 5.0 0.16 0.47 0.47 93 1025.6
20181019155220 47 184 2.0 5.0 0.15 0.46 0.46 93 1025.6
20181019155112 47 184 1.0 6.0 0.16 0.46 0.46 93 1025.6
20181019155024 47 184 1.0 6.0 0.16 0.46 0.46 93 1025.6
20181019154915 47 184 1.0 6.0 0.16 0.46 0.46 93 1025.6
20181019154827 47 184 1.0 8.0 0.16 0.46 0.46 93 1025.7
20181019154720 47 184 1.0 8.0 0.16 0.46 0.46 93 1025.7
20181019154631 47 184 2.0 8.0 0.16 0.46 0.46 93 1025.8
20181019154523 47 184 2.0 8.0 0.17 0.46 0.46 93 1025.7
20181019154415 47 183 3.0 8.0 0.17 0.46 0.46 93 1025.6
20181019154325 47 183 3.0 8.0 0.17 0.46 0.46 93 1025.7
20181019154218 47 177 4.0 8.0 0.17 0.46 0.46 93 1025.7
20181019154129 47 236 4.0 8.0 0.17 0.45 0.45 93 1025.7
20181019154022 47 205 2.0 7.0 0.17 0.45 0.45 93 1025.7
20181019153913 47 158 1.0 7.0 0.17 0.45 0.45 93 1025.6
20181019153824 47 158 3.0 7.0 0.17 0.45 0.45 93 1025.6
20181019153717 47 158 3.0 8.0 0.17 0.45 0.45 93 1025.7
20181019153629 47 186 2.0 8.0 0.17 0.45 0.45 93 1025.6
20181019153519 47 178 2.0 8.0 0.18 0.45 0.45 93 1025.6
20181019153432 47 178 3.0 8.0 0.18 0.45 0.45 93 1025.7
20181019153322 47 178 3.0 8.0 0.18 0.45 0.45 93 1025.8
20181019153214 47 183 3.0 8.0 0.18 0.45 0.45 93 1025.9
20181019153124 47 183 4.0 8.0 0.19 0.45 0.45 93 1025.9
20181019153015 47 154 5.0 8.0 0.18 0.44 0.44 93 1025.9
20181019152926 47 180 5.0 8.0 0.18 0.44 0.44 93 1025.8
20181019152819 47 197 4.0 6.0 0.18 0.44 0.44 93 1025.9
20181019152731 47 188 3.0 5.0 0.18 0.44 0.44 93 1025.9
20181019152622 47 157 2.0 5.0 0.18 0.43 0.43 93 1025.8
20181019152514 47 157 2.0 5.0 0.16 0.41 0.41 93 1025.8
20181019152424 47 157 3.0 5.0 0.15 0.40 0.40 93 1025.7
20181019152316 47 157 3.0 5.0 0.13 0.38 0.38 92 1025.5
20181019152230 47 170 4.0 5.0 0.13 0.37 0.37 92 1025.6
20181019152120 47 199 4.0 5.0 0.13 0.37 0.37 92 1025.6
20181019152013 47 192 3.0 4.0 0.12 0.36 0.36 93 1025.9
20181019151923 47 182 3.0 4.0 0.12 0.36 0.36 93 1025.9
20181019151816 47 211 3.0 4.0 0.12 0.36 0.36 93 1025.9
20181019151728 47 211 2.0 4.0 0.11 0.35 0.35 93 1025.9
20181019151621 47 185 2.0 3.0 0.12 0.35 0.35 92 1025.9
20181019151531 47 185 2.0 3.0 0.11 0.34 0.34 92 1025.8
20181019151423 47 185 2.0 3.0 0.10 0.33 0.33 92 1025.7
20181019151315 47 186 2.0 3.0 0.10 0.33 0.33 92 1025.6
20181019151227 47 204 1.0 3.0 0.11 0.33 0.33 92 1025.8
20181019151119 47 312 0.0 0.0 0.11 0.33 0.33 92 1026.0
20181019151031 47 312 0.0 0.0 0.11 0.33 0.33 92 1026.0
20181019150922 47 312 0.0 0.0 0.11 0.33 0.33 92 1025.9
20181019150815 47 312 0.0 0.0 0.11 0.33 0.33 92 1025.9
20181019150726 47 312 0.0 0.0 0.11 0.33 0.33 92 1025.9
20181019150616 47 312 0.0 0.0 0.11 0.33 0.33 92 1025.9
20181019150527 47 312 0.0 0.0 0.11 0.33 0.33 92 1025.9
20181019150418 47 312 0.0 0.0 0.10 0.32 0.32 92 1025.9
20181019150330 47 312 0.0 0.0 0.10 0.32 0.32 92 1026.0
20181019150222 48 312 0.0 0.0 0.10 0.32 0.32 92 1026.1
20181019150115 48 312 0.0 0.0 0.10 0.32 0.32 92 1026.0
20181019150025 48 312 0.0 0.0 0.09 0.31 0.31 92 1026.0
20181019145917 48 312 0.0 0.0 0.09 0.31 0.31 92 1026.1
20181019145830 47 312 0.0 0.0 0.09 0.31 0.31 92 1026.1
20181019145733 47 312 0.0 0.0 0.09 0.31 0.31 92 1026.2
20181019145629 47 312 0.0 0.0 0.09 0.31 0.31 92 1026.2
20181019145521 47 312 0.0 0.0 0.09 0.31 0.31 92 1026.2
20181019145413 47 312 0.0 0.0 0.09 0.31 0.31 92 1026.1
20181019145325 47 312 0.0 0.0 0.09 0.31 0.31 92 1026.1
20181019145216 47 312 0.0 0.0 0.08 0.30 0.30 92 1026.2
20181019145129 47 312 0.0 0.0 0.08 0.30 0.30 92 1026.2
20181019145021 47 312 0.0 0.0 0.08 0.30 0.30 92 1026.2
20181019144932 47 312 0.0 0.0 0.08 0.30 0.30 92 1026.2
20181019144824 47 312 0.0 0.0 0.08 0.30 0.30 92 1026.2
20181019144715 47 312 0.0 0.0 0.08 0.30 0.30 92 1026.1
20181019144628 47 312 0.0 0.0 0.07 0.29 0.29 92 1026.1
20181019144519 47 312 0.0 0.0 0.07 0.29 0.29 92 1026.1
20181019144431 47 312 0.0 0.0 0.07 0.29 0.29 92 1026.1
20181019144322 47 312 0.0 0.0 0.07 0.29 0.29 92 1026.1
20181019144214 47 312 0.0 0.0 0.06 0.28 0.28 92 1026.0
20181019144126 47 312 0.0 0.0 0.06 0.28 0.28 92 1026.1
20181019144018 47 312 0.0 0.0 0.06 0.28 0.28 92 1026.0
20181019143931 47 312 0.0 0.0 0.06 0.28 0.28 92 1025.9
20181019143822 47 312 0.0 0.0 0.06 0.28 0.28 92 1026.0
20181019143714 47 312 0.0 0.0 0.06 0.28 0.28 92 1026.0
20181019143625 47 312 0.0 0.0 0.05 0.27 0.27 92 1026.1
20181019143516 47 312 0.0 0.0 0.05 0.27 0.27 92 1026.0
20181019143428 47 312 0.0 0.0 0.05 0.27 0.27 92 1026.0
20181019143320 47 312 0.0 0.0 0.05 0.27 0.27 92 1025.9
20181019143212 47 312 0.0 0.0 0.04 0.26 0.26 92 1025.9
20181019143123 47 312 0.0 0.0 0.04 0.26 0.26 92 1025.9
20181019143015 47 312 0.0 0.0 0.05 0.26 0.26 92 1025.8
20181019142926 47 312 0.0 0.0 0.05 0.26 0.26 92 1025.8
20181019142818 47 312 0.0 0.0 0.05 0.26 0.26 92 1025.7
20181019142726 47 312 0.0 0.0 0.04 0.25 0.25 92 1025.7
20181019142621 47 312 0.0 0.0 0.04 0.25 0.25 92 1025.7
20181019142512 47 313 0.0 0.0 0.04 0.25 0.25 91 1025.7
20181019142424 47 312 0.0 0.0 0.04 0.25 0.25 91 1025.7
20181019142316 47 312 0.0 0.0 0.03 0.24 0.24 91 1025.7
20181019142224 47 312 0.0 0.0 0.03 0.24 0.24 91 1025.7
20181019142120 47 312 0.0 0.0 0.03 0.24 0.24 91 1025.8
20181019142031 47 312 0.0 0.0 0.03 0.24 0.24 91 1025.9
20181019141923 47 312 0.0 0.0 0.03 0.24 0.24 92 1025.9
20181019141815 47 312 0.0 0.0 0.03 0.24 0.24 92 1025.9
20181019141723 47 312 0.0 0.0 0.02 0.23 0.23 92 1025.9
20181019141618 47 312 0.0 0.0 0.02 0.23 0.23 92 1025.9
20181019141529 47 312 0.0 0.0 0.02 0.23 0.23 92 1025.9
20181019141420 47 312 0.0 0.0 0.02 0.23 0.23 91 1025.9
20181019141331 47 312 0.0 0.0 0.02 0.23 0.23 91 1025.9
20181019141219 47 312 0.0 0.0 0.01 0.22 0.22 91 1026.0
20181019141114 47 312 0.0 0.0 0.01 0.22 0.22 91 1025.9
20181019141026 47 312 0.0 0.0 0.01 0.22 0.22 91 1025.9
20181019140917 47 312 0.0 0.0 0.01 0.22 0.22 91 1025.8
20181019140830 47 312 0.0 0.0 0.01 0.22 0.22 91 1025.9
20181019140718 47 312 0.0 0.0 0.01 0.22 0.22 91 1025.9
20181019140614 47 312 0.0 0.0 0.01 0.22 0.22 91 1025.9
20181019140524 47 312 0.0 0.0 0.02 0.22 0.22 91 1025.8
20181019140416 47 312 0.0 0.0 0.02 0.22 0.22 91 1025.9
20181019140328 47 312 0.0 0.0 0.02 0.22 0.22 91 1025.9
20181019140217 47 312 0.0 0.0 0.02 0.22 0.22 91 1026.0
20181019140112 47 312 0.0 0.0 0.02 0.22 0.22 92 1026.1
20181019140023 47 312 0.0 0.0 0.02 0.22 0.22 91 1026.1
20181019135914 47 312 0.0 0.0 0.02 0.22 0.22 92 1026.1
20181019135826 47 312 0.0 0.0 0.02 0.22 0.22 92 1026.0
20181019135745 47 312 0.0 0.0 0.02 0.22 0.22 92 1026.0
20181019135626 47 312 0.0 0.0 0.02 0.22 0.22 92 1026.0
20181019135518 47 312 0.0 0.0 0.02 0.22 0.22 92 1026.1
20181019135428 47 312 0.0 0.0 0.02 0.22 0.22 92 1026.1
20181019135319 47 312 0.0 0.0 0.02 0.22 0.22 92 1026.1
20181019135227 47 312 0.0 1.0 0.02 0.22 0.22 92 1026.1
20181019135124 47 312 0.0 1.0 0.02 0.22 0.22 92 1026.1
20181019135014 47 312 0.0 1.0 0.02 0.22 0.22 92 1026.1
20181019134926 47 312 0.0 1.0 0.02 0.22 0.22 91 1026.0
20181019134819 47 312 0.0 1.0 0.02 0.22 0.22 91 1026.0
20181019134726 47 312 0.0 1.0 0.02 0.22 0.22 91 1026.1
20181019134621 47 312 0.0 1.0 0.02 0.22 0.22 91 1026.1
20181019134513 47 312 0.0 1.0 0.03 0.22 0.22 91 1025.9
20181019134424 47 312 0.0 1.0 0.03 0.22 0.22 92 1025.9
20181019134315 47 312 0.0 1.0 0.03 0.22 0.22 91 1026.0
20181019134223 47 313 0.0 1.0 0.04 0.22 0.22 92 1026.0
20181019134118 47 312 0.0 1.0 0.04 0.22 0.22 92 1026.0
20181019134029 47 312 0.0 1.0 0.04 0.22 0.22 91 1026.0
20181019133921 47 312 0.0 1.0 0.05 0.22 0.22 91 1025.9
20181019133812 47 312 0.0 1.0 0.05 0.22 0.22 91 1025.9
20181019133720 47 312 0.0 1.0 0.05 0.22 0.22 91 1025.9
20181019133616 47 312 0.0 1.0 0.05 0.22 0.22 91 1025.9
20181019133527 47 312 0.0 1.0 0.05 0.22 0.22 91 1025.9
20181019133419 47 312 0.0 1.0 0.05 0.22 0.22 91 1025.9
20181019133330 47 312 0.0 1.0 0.05 0.22 0.22 91 1025.9
20181019133218 47 312 0.0 1.0 0.05 0.22 0.22 91 1025.9
20181019133115 47 312 0.0 1.0 0.04 0.21 0.21 91 1025.9
20181019133025 47 312 0.0 1.0 0.05 0.21 0.21 91 1025.9
20181019132917 47 312 0.0 1.0 0.05 0.21 0.21 91 1025.8
20181019132829 47 312 0.0 0.0 0.05 0.21 0.21 91 1025.9
20181019132717 47 312 0.0 0.0 0.05 0.21 0.21 91 1025.9
20181019132613 47 312 0.0 0.0 0.05 0.21 0.21 91 1026.0
20181019132523 47 312 0.0 0.0 0.05 0.21 0.21 91 1026.0
20181019132415 47 312 0.0 0.0 0.05 0.21 0.21 91 1026.0
20181019132327 47 312 0.0 0.0 0.05 0.21 0.21 91 1026.1
20181019132215 47 312 0.0 0.0 0.06 0.21 0.21 91 1026.1
20181019132131 47 312 0.0 0.0 0.06 0.21 0.21 91 1026.1
20181019132024 47 312 0.0 1.0 0.06 0.21 0.21 91 1026.2
20181019131915 47 312 0.0 1.0 0.06 0.21 0.21 91 1026.2
20181019131828 47 312 0.0 1.0 0.06 0.21 0.21 91 1026.2
20181019131715 47 312 0.0 1.0 0.07 0.21 0.21 91 1026.2
20181019131630 47 312 0.0 1.0 0.07 0.21 0.21 91 1026.2
20181019131522 47 312 0.0 1.0 0.08 0.21 0.21 91 1026.2
20181019131414 47 312 0.0 1.0 0.08 0.21 0.21 91 1026.2
20181019131325 47 312 0.0 1.0 0.08 0.21 0.21 91 1026.2
20181019131213 47 312 0.0 1.0 0.09 0.21 0.21 91 1026.2
20181019131127 47 312 0.0 1.0 0.09 0.21 0.21 91 1026.2
20181019131019 47 312 0.0 1.0 0.09 0.21 0.21 91 1026.2
20181019130930 47 312 0.0 0.0 0.10 0.21 0.21 91 1026.2
20181019130822 47 312 0.0 0.0 0.10 0.21 0.21 91 1026.2
20181019130730 47 312 0.0 0.0 0.11 0.21 0.21 91 1026.2
20181019130625 47 312 0.0 0.0 0.10 0.20 0.20 91 1026.2
20181019130516 47 312 0.0 0.0 0.10 0.20 0.20 91 1026.2
20181019130428 47 312 0.0 1.0 0.11 0.20 0.20 91 1026.1
20181019130320 47 312 0.0 1.0 0.11 0.20 0.20 90 1026.1
20181019130228 47 312 0.0 1.0 0.11 0.20 0.20 90 1026.1
20181019130123 47 312 0.0 1.0 0.12 0.20 0.20 90 1026.1
20181019130014 47 312 0.0 1.0 0.12 0.20 0.20 90 1026.1
20181019125925 47 312 0.0 1.0 0.13 0.20 0.20 90 1026.1
20181019125818 47 312 0.0 1.0 0.13 0.20 0.20 90 1026.1
20181019125736 47 312 0.0 1.0 0.13 0.20 0.20 90 1026.1
20181019125616 47 312 0.0 2.0 0.14 0.20 0.20 90 1026.1
20181019125528 47 312 0.0 2.0 0.15 0.20 0.20 90 1026.1
20181019125418 47 312 0.0 2.0 0.15 0.20 0.20 90 1026.1
20181019125329 47 312 0.0 2.0 0.15 0.20 0.20 90 1026.1
20181019125217 47 312 0.0 2.0 0.15 0.20 0.20 90 1026.1
20181019125113 47 312 0.0 2.0 0.16 0.20 0.20 90 1026.1
20181019125023 47 312 0.0 2.0 0.17 0.20 0.20 90 1026.1
20181019124914 47 312 1.0 2.0 0.18 0.20 0.20 90 1026.1
20181019124826 47 312 0.0 2.0 0.18 0.20 0.20 90 1026.1
20181019124713 47 312 0.0 1.0 0.19 0.20 0.20 90 1026.1
20181019124625 47 312 0.0 1.0 0.18 0.19 0.19 90 1026.1
20181019124521 47 312 0.0 1.0 0.18 0.19 0.19 90 1026.1
20181019124412 47 312 0.0 1.0 0.18 0.19 0.19 90 1026.1
20181019124324 47 312 0.0 1.0 0.17 0.18 0.18 90 1026.1
20181019124231 47 312 0.0 1.0 0.18 0.18 0.18 90 1026.0
20181019124123 47 312 0.0 1.0 0.18 0.18 0.18 90 1026.1
20181019124019 47 312 0.0 1.0 0.17 0.17 0.17 89 1026.0
20181019123930 47 312 0.0 1.0 0.17 0.17 0.17 89 1026.0
20181019123822 47 312 0.0 1.0 0.17 0.17 0.17 89 1026.0
20181019123730 47 312 0.0 1.0 0.17 0.17 0.17 89 1025.9
20181019123621 47 312 0.0 2.0 0.17 0.17 0.17 89 1025.9
20181019123516 47 312 0.0 3.0 0.17 0.17 0.17 89 1025.9
20181019123428 47 312 0.0 3.0 0.17 0.17 0.17 89 1025.8
20181019123319 47 312 0.0 4.0 0.17 0.17 0.17 89 1025.9
20181019123227 47 312 0.0 4.0 0.17 0.17 0.17 89 1025.9
20181019123119 47 312 0.0 4.0 0.16 0.16 0.16 89 1025.9
20181019123014 47 312 0.0 4.0 0.16 0.16 0.16 89 1025.9
20181019122925 47 312 1.0 4.0 0.16 0.16 0.16 89 1026.0
20181019122817 47 312 1.0 4.0 0.16 0.16 0.16 89 1026.0
20181019122725 47 312 1.0 4.0 0.16 0.16 0.16 89 1025.9
20181019122617 47 313 2.0 4.0 0.16 0.16 0.16 89 1025.9
20181019122513 47 313 2.0 4.0 0.16 0.16 0.16 89 1025.9
20181019122424 47 320 2.0 5.0 0.16 0.16 0.16 89 1025.9
20181019122316 47 323 1.0 5.0 0.15 0.15 0.16 88 1025.9
20181019122224 47 323 1.0 5.0 0.15 0.15 0.15 88 1025.9
20181019122116 47 321 1.0 5.0 0.15 0.15 0.15 88 1026.0
20181019122031 47 321 2.0 5.0 0.15 0.15 0.15 88 1026.0
20181019121922 47 322 2.0 5.0 0.15 0.15 0.15 88 1026.0
20181019121815 47 316 2.0 5.0 0.14 0.14 0.14 88 1026.0
20181019121721 47 323 2.0 5.0 0.14 0.14 0.14 88 1026.0
20181019121612 48 325 2.0 5.0 0.13 0.13 0.13 88 1026.1
20181019121528 48 317 1.0 5.0 0.13 0.13 0.13 88 1026.1
20181019121419 48 317 1.0 5.0 0.13 0.13 0.13 88 1026.1
20181019121331 48 319 0.0 5.0 0.12 0.12 0.12 88 1026.1
20181019121219 48 319 1.0 5.0 0.12 0.12 0.12 88 1026.2
20181019121131 48 319 2.0 5.0 0.12 0.12 0.12 88 1026.3
20181019121026 48 323 2.0 5.0 0.11 0.11 0.11 87 1026.2
20181019120918 48 329 2.0 5.0 0.11 0.11 0.11 87 1026.3
20181019120831 48 329 2.0 5.0 0.11 0.11 0.11 87 1026.3
20181019120717 48 321 3.0 5.0 0.10 0.10 0.10 87 1026.3
20181019120628 48 271 2.0 5.0 0.10 0.10 0.10 87 1026.4
20181019120524 48 309 1.0 5.0 0.09 0.09 0.09 87 1026.4
20181019120415 48 309 3.0 5.0 0.09 0.09 0.09 87 1026.4
20181019120326 48 302 3.0 5.0 0.09 0.09 0.09 87 1026.4
20181019120215 48 335 2.0 6.0 0.08 0.08 0.08 86 1026.4
20181019120126 48 323 2.0 6.0 0.08 0.08 0.08 86 1026.5
20181019120022 48 271 2.0 6.0 0.07 0.07 0.07 86 1026.5
20181019115913 48 295 2.0 5.0 0.07 0.07 0.07 86 1026.4
20181019115824 48 304 3.0 5.0 0.07 0.07 0.07 86 1026.4
20181019115743 48 271 2.0 5.0 0.06 0.06 0.06 86 1026.4
20181019115621 48 261 1.0 4.0 0.06 0.06 0.06 86 1026.4
20181019115517 48 254 1.0 3.0 0.05 0.05 0.05 86 1026.4
20181019115428 49 254 1.0 3.0 0.05 0.05 0.05 85 1026.5
20181019115320 49 254 1.0 3.0 0.05 0.05 0.05 85 1026.5
20181019115227 49 254 1.0 3.0 0.04 0.04 0.04 85 1026.5
20181019115119 49 254 1.0 4.0 0.03 0.03 0.04 85 1026.5
20181019115015 49 246 1.0 4.0 0.02 0.02 0.02 84 1026.5
20181019114927 49 246 1.0 4.0 0.02 0.02 0.02 84 1026.4
20181019114820 49 246 0.0 4.0 0.02 0.02 0.02 84 1026.4
20181019114728 49 246 1.0 4.0 0.01 0.01 0.01 84 1026.4
20181019114619 49 246 1.0 4.0 0.01 0.01 0.01 83 1026.4
20181019114515 49 242 2.0 4.0 0.01 0.01 0.01 83 1026.4
20181019114425 49 240 2.0 4.0 0.01 0.01 0.01 83 1026.3
20181019114317 49 240 2.0 4.0 0.00 0.00 0.00 83 1026.2
20181019114226 49 240 2.0 4.0 0.00 0.00 0.00 83 1026.2
20181019114117 49 240 2.0 4.0 0.00 0.00 0.00 83 1026.3
20181019114013 49 240 2.0 4.0 0.00 0.00 0.00 83 1026.2
20181019113924 49 240 2.0 4.0 0.00 0.00 0.00 82 1026.2
20181019113817 49 240 3.0 4.0 0.00 0.00 0.00 82 1026.2
20181019113724 49 240 3.0 4.0 0.00 0.00 0.00 81 1026.2
20181019113615 49 240 2.0 4.0 0.00 0.00 0.00 81 1026.2
20181019113530 49 240 2.0 4.0 0.00 0.00 0.00 81 1026.1
20181019113421 49 240 2.0 4.0 0.00 0.00 0.00 81 1026.0
20181019113314 49 240 2.0 4.0 0.00 0.00 0.00 81 1026.0
20181019113221 49 240 2.0 4.0 0.00 0.00 0.00 80 1026.0
20181019113112 49 240 3.0 4.0 0.00 0.00 0.00 80 1026.0
20181019113027 49 240 3.0 4.0 0.00 0.00 0.00 80 1026.0
20181019112919 49 182 2.0 3.0 0.00 0.00 0.00 79 1025.9
20181019112831 49 182 2.0 3.0 0.00 0.00 0.00 79 1025.8
20181019112719 49 182 2.0 3.0 0.00 0.00 0.00 79 1025.8
20181019112630 49 182 2.0 3.0 0.00 0.00 0.00 79 1025.7
20181019112526 49 182 2.0 3.0 0.00 0.00 0.00 79 1025.8
20181019112417 49 182 2.0 3.0 0.00 0.00 0.00 79 1025.6
20181019112329 49 182 2.0 4.0 0.00 0.00 0.00 79 1025.6
20181019112217 49 182 2.0 4.0 0.00 0.00 0.00 79 1025.6
20181019112129 49 182 2.0 4.0 0.00 0.00 0.00 79 1025.5
20181019112025 49 182 2.0 4.0 0.00 0.00 0.00 79 1025.6
20181019111916 49 182 2.0 4.0 0.00 0.00 0.00 79 1025.5
20181019111828 49 182 2.0 4.0 0.00 0.00 0.00 79 1025.6
20181019111717 49 182 2.0 4.0 0.00 0.00 0.00 79 1025.5
20181019111629 49 182 2.0 4.0 0.00 0.00 0.00 79 1025.5
20181019111525 49 182 2.0 4.0 0.00 0.00 0.00 79 1025.5
20181019111417 49 182 2.0 3.0 0.00 0.00 0.00 79 1025.5
20181019111328 49 182 2.0 3.0 0.00 0.00 0.00 78 1025.5
20181019111216 49 182 2.0 4.0 0.00 0.00 0.00 78 1025.5
20181019111126 49 182 1.0 4.0 0.00 0.00 0.00 78 1025.4
20181019111021 49 182 1.0 4.0 0.00 0.00 0.00 78 1025.4
20181019110912 49 182 2.0 4.0 0.00 0.00 0.00 78 1025.4
20181019110844 49 182 2.0 4.0 0.00 0.00 0.00 78 1025.4
20181019110717 49 182 2.0 4.0 0.00 0.00 0.00 77 1025.4
20181019110629 50 182 2.0 4.0 0.00 0.00 0.00 77 1025.5
20181019110520 50 182 2.0 4.0 0.00 0.00 0.00 76 1025.4
20181019110415 50 182 3.0 4.0 0.00 0.00 0.00 76 1025.4
20181019110327 50 182 3.0 5.0 0.00 0.00 0.00 76 1025.4
20181019110214 50 155 3.0 5.0 0.00 0.00 0.00 76 1025.3
20181019110125 50 155 3.0 5.0 0.00 0.00 0.00 76 1025.3
20181019110017 50 155 3.0 5.0 0.00 0.00 0.00 76 1025.3
20181019105912 50 155 3.0 5.0 0.00 0.00 0.00 76 1025.3
20181019105824 50 155 3.0 5.0 0.00 0.00 0.00 75 1025.3
20181019105743 50 155 3.0 5.0 0.00 0.00 0.00 75 1025.2
20181019105620 50 155 2.0 5.0 0.00 0.00 0.00 76 1025.3
20181019105532 50 155 2.0 5.0 0.00 0.00 0.00 76 1025.3
20181019105427 50 155 3.0 5.0 0.00 0.00 0.00 76 1025.3
20181019105319 50 155 3.0 5.0 0.00 0.00 0.00 76 1025.3
20181019105227 50 155 3.0 5.0 0.00 0.00 0.00 76 1025.3
20181019105119 50 155 3.0 5.0 0.00 0.00 0.00 76 1025.3
20181019105031 50 155 3.0 5.0 0.00 0.00 0.00 76 1025.4
20181019104927 50 155 2.0 4.0 0.00 0.00 0.00 76 1025.4
20181019104819 50 155 1.0 3.0 0.00 0.00 0.00 77 1025.4
20181019104728 50 155 0.0 3.0 0.00 0.00 0.00 77 1025.4
20181019104619 50 155 0.0 0.0 0.00 0.00 0.00 78 1025.4
20181019104531 50 155 0.0 0.0 0.00 0.00 0.00 78 1025.5
20181019104428 50 155 0.0 0.0 0.00 0.00 0.00 77 1025.5
20181019104319 50 155 0.0 1.0 0.00 0.00 0.00 77 1025.5
20181019104227 50 155 0.0 2.0 0.00 0.00 0.00 77 1025.4
20181019104119 50 155 0.0 2.0 0.00 0.00 0.00 77 1025.5
20181019104031 50 155 0.0 2.0 0.00 0.00 0.00 77 1025.5
20181019103927 50 155 0.0 2.0 0.00 0.00 0.00 77 1025.5
20181019103820 50 155 0.0 2.0 0.00 0.00 0.00 77 1025.5
20181019103727 50 155 0.0 2.0 0.00 0.00 0.00 77 1025.5
20181019103619 50 155 0.0 2.0 0.00 0.00 0.00 77 1025.4
20181019103530 50 155 1.0 3.0 0.00 0.00 0.00 77 1025.5
20181019103426 50 155 1.0 3.0 0.00 0.00 0.00 77 1025.5
20181019103317 50 155 0.0 3.0 0.00 0.00 0.00 78 1025.5
20181019103226 50 155 0.0 3.0 0.00 0.00 0.00 78 1025.5
20181019103117 50 155 0.0 3.0 0.00 0.00 0.00 78 1025.5
20181019103029 50 155 0.0 3.0 0.00 0.00 0.00 78 1025.5
20181019102926 50 155 0.0 3.0 0.00 0.00 0.00 78 1025.4
20181019102817 50 155 1.0 3.0 0.00 0.00 0.00 78 1025.3
20181019102725 50 155 2.0 3.0 0.00 0.00 0.00 78 1025.3
20181019102617 50 155 2.0 3.0 0.00 0.00 0.00 79 1025.3
20181019102528 50 155 1.0 3.0 0.00 0.00 0.00 79 1025.3
20181019102424 50 155 0.0 3.0 0.00 0.00 0.00 79 1025.3
20181019102314 50 155 0.0 0.0 0.00 0.00 0.00 79 1025.3
20181019102224 50 155 0.0 0.0 0.00 0.00 0.00 79 1025.4
20181019102114 50 155 0.0 2.0 0.00 0.00 0.00 79 1025.4
20181019102026 50 155 0.0 2.0 0.00 0.00 0.00 79 1025.4
20181019101921 50 155 0.0 4.0 0.00 0.00 0.00 78 1025.4
20181019101814 50 155 0.0 7.0 0.00 0.00 0.00 78 1025.3
20181019101722 50 155 0.0 7.0 0.00 0.00 0.00 77 1025.3
20181019101612 50 155 0.0 7.0 0.00 0.00 0.00 76 1025.2
20181019101524 50 155 0.0 7.0 0.00 0.00 0.00 76 1025.2
20181019101419 50 155 1.0 7.0 0.00 0.00 0.00 76 1025.1
20181019101331 50 155 1.0 8.0 0.00 0.00 0.00 76 1025.1
20181019101218 50 169 3.0 8.0 0.00 0.00 0.00 76 1025.1
20181019101130 50 181 3.0 8.0 0.00 0.00 0.00 76 1025.1
20181019101022 50 137 4.0 8.0 0.00 0.00 0.00 76 1025.1
20181019100917 50 128 4.0 8.0 0.00 0.00 0.00 76 1025.0
20181019100830 50 184 4.0 8.0 0.00 0.00 0.00 76 1025.1
20181019100716 50 157 3.0 8.0 0.00 0.00 0.00 76 1025.1
20181019100627 50 172 4.0 8.0 0.00 0.00 0.00 76 1025.2
20181019100519 50 147 3.0 9.0 0.00 0.00 0.00 76 1025.1
20181019100414 50 165 3.0 8.0 0.00 0.00 0.00 76 1025.1
20181019100324 50 198 3.0 8.0 0.00 0.00 0.00 76 1025.1
20181019100231 50 156 2.0 8.0 0.00 0.00 0.00 76 1025.1
20181019100122 50 182 3.0 8.0 0.00 0.00 0.00 76 1025.2
20181019100013 50 128 6.0 8.0 0.00 0.00 0.00 76 1025.2
20181019095928 50 150 5.0 8.0 0.00 0.00 0.00 76 1025.2
20181019095821 50 154 2.0 9.0 0.00 0.00 0.00 76 1025.2
20181019095739 50 217 2.0 8.0 0.00 0.00 0.00 76 1025.2
20181019095615 50 219 3.0 8.0 0.00 0.00 0.00 76 1025.3
20181019095527 50 168 3.0 8.0 0.00 0.00 0.00 76 1025.3
20181019095423 50 171 4.0 8.0 0.00 0.00 0.00 76 1025.3
20181019095315 50 167 3.0 8.0 0.00 0.00 0.00 76 1025.3
20181019095222 50 157 4.0 8.0 0.00 0.00 0.00 76 1025.3
20181019095114 50 180 5.0 8.0 0.00 0.00 0.00 76 1025.3
20181019095024 50 157 5.0 8.0 0.00 0.00 0.00 76 1025.3
20181019094919 50 158 4.0 8.0 0.00 0.00 0.00 76 1025.3
20181019094832 50 155 3.0 5.0 0.00 0.00 0.00 76 1025.3
20181019094719 50 173 3.0 6.0 0.00 0.00 0.00 76 1025.3
20181019094631 50 175 2.0 6.0 0.00 0.00 0.00 76 1025.4
20181019094522 50 169 2.0 6.0 0.00 0.00 0.00 76 1025.4
20181019094418 50 169 3.0 6.0 0.00 0.00 0.00 76 1025.4
20181019094328 50 170 3.0 6.0 0.00 0.00 0.00 76 1025.4
20181019094217 50 154 2.0 5.0 0.00 0.00 0.00 76 1025.4
20181019094128 50 154 2.0 5.0 0.00 0.00 0.00 76 1025.4
20181019094019 50 154 2.0 5.0 0.00 0.00 0.00 76 1025.4
20181019093914 50 182 1.0 5.0 0.00 0.00 0.00 76 1025.4
20181019093826 50 182 2.0 5.0 0.00 0.00 0.00 76 1025.4
20181019093715 50 182 1.0 7.0 0.00 0.00 0.00 76 1025.5
20181019093626 50 182 2.0 7.0 0.00 0.00 0.00 76 1025.5
20181019093518 50 182 2.0 7.0 0.00 0.00 0.00 76 1025.5
20181019093413 50 143 2.0 7.0 0.00 0.00 0.00 76 1025.5
20181019093325 50 180 3.0 7.0 0.00 0.00 0.00 76 1025.5
20181019093213 50 129 4.0 7.0 0.00 0.00 0.00 77 1025.4
20181019093124 50 153 4.0 7.0 0.00 0.00 0.00 77 1025.4
20181019093015 50 165 4.0 7.0 0.00 0.00 0.00 77 1025.5
20181019092927 50 159 3.0 6.0 0.00 0.00 0.00 77 1025.5
20181019092823 50 166 3.0 6.0 0.00 0.00 0.00 77 1025.5
20181019092731 50 163 2.0 4.0 0.00 0.00 0.00 77 1025.5
20181019092619 50 163 2.0 4.0 0.00 0.00 0.00 77 1025.5
20181019092530 50 163 1.0 4.0 0.00 0.00 0.00 77 1025.5
20181019092421 50 163 0.0 3.0 0.00 0.00 0.00 77 1025.6
20181019092316 50 163 0.0 3.0 0.00 0.00 0.00 76 1025.6
20181019092224 50 163 0.0 3.0 0.00 0.00 0.00 76 1025.6
20181019092116 50 163 0.0 3.0 0.00 0.00 0.00 76 1025.6
20181019092027 50 163 1.0 3.0 0.00 0.00 0.00 76 1025.5
20181019091815 50 163 1.0 4.0 0.00 0.00 0.00 76 1025.5
20181019091721 50 163 2.0 4.0 0.00 0.00 0.00 76 1025.5
20181019091612 50 118 1.0 4.0 0.00 0.00 0.00 76 1025.6
20181019091524 50 118 1.0 4.0 0.00 0.00 0.00 76 1025.6
20181019091416 50 118 0.0 4.0 0.00 0.00 0.00 76 1025.6
20181019091331 50 118 0.0 4.0 0.00 0.00 0.00 76 1025.5
20181019091219 50 118 2.0 4.0 0.00 0.00 0.00 76 1025.5
20181019091131 50 118 2.0 4.0 0.00 0.00 0.00 76 1025.5
20181019091022 50 134 2.0 4.0 0.00 0.00 0.00 76 1025.5
20181019090913 50 134 1.0 2.0 0.00 0.00 0.00 76 1025.5
20181019090830 50 134 1.0 2.0 0.00 0.00 0.00 76 1025.5
20181019090717 50 134 1.0 3.0 0.00 0.00 0.00 76 1025.5
20181019090630 50 134 1.0 3.0 0.00 0.00 0.00 76 1025.6
20181019090520 50 134 1.0 3.0 0.00 0.00 0.00 76 1025.6
20181019090431 50 134 0.0 3.0 0.00 0.00 0.00 76 1025.6
20181019090327 50 134 0.0 3.0 0.00 0.00 0.00 76 1025.7
20181019090214 50 134 0.0 4.0 0.00 0.00 0.00 76 1025.7
20181019090126 50 134 0.0 4.0 0.00 0.00 0.00 76 1025.8
20181019090017 50 134 1.0 4.0 0.00 0.00 0.00 76 1025.8
20181019085928 50 134 2.0 4.0 0.00 0.00 0.00 76 1025.8
20181019085824 50 134 2.0 4.0 0.00 0.00 0.00 76 1025.8
20181019085743 50 134 2.0 4.0 0.00 0.00 0.00 76 1025.8
20181019085621 50 134 2.0 4.0 0.00 0.00 0.00 76 1025.7
20181019085512 50 134 2.0 4.0 0.00 0.00 0.00 76 1025.8
20181019085423 50 134 3.0 4.0 0.00 0.00 0.00 76 1025.8
20181019085319 50 134 2.0 4.0 0.00 0.00 0.00 76 1025.8
20181019085227 50 134 2.0 3.0 0.00 0.00 0.00 76 1025.8
20181019085117 50 134 2.0 3.0 0.00 0.00 0.00 75 1025.8
20181019085028 50 134 2.0 3.0 0.00 0.00 0.00 76 1025.8
20181019084919 50 134 1.0 3.0 0.00 0.00 0.00 76 1026.0
20181019084816 50 134 1.0 3.0 0.00 0.00 0.00 75 1026.1
20181019084724 50 134 1.0 2.0 0.00 0.00 0.00 75 1026.1
20181019084615 50 134 1.0 2.0 0.00 0.00 0.00 75 1026.1
20181019084527 50 134 1.0 2.0 0.00 0.00 0.00 75 1026.2
20181019084418 51 134 0.0 2.0 0.00 0.00 0.00 75 1026.2
20181019084313 51 134 0.0 2.0 0.00 0.00 0.00 75 1026.2
20181019084220 51 134 1.0 2.0 0.00 0.00 0.00 75 1026.2
20181019084131 51 134 0.0 2.0 0.00 0.00 0.00 75 1026.2
20181019084022 51 134 0.0 2.0 0.00 0.00 0.00 74 1026.2
20181019083913 51 134 0.0 3.0 0.00 0.00 0.00 74 1026.2
20181019083829 51 134 0.0 4.0 0.00 0.00 0.00 74 1026.2
20181019083717 51 134 0.0 4.0 0.00 0.00 0.00 74 1026.3
20181019083628 51 134 0.0 4.0 0.00 0.00 0.00 74 1026.4
20181019083519 51 134 0.0 4.0 0.00 0.00 0.00 74 1026.5
20181019083430 51 134 0.0 5.0 0.00 0.00 0.00 74 1026.4
20181019083325 51 134 1.0 5.0 0.00 0.00 0.00 74 1026.4
20181019083212 51 134 1.0 5.0 0.00 0.00 0.00 74 1026.3
20181019083124 51 134 2.0 5.0 0.00 0.00 0.00 74 1026.3
20181019083015 51 134 2.0 5.0 0.00 0.00 0.00 74 1026.3
20181019082927 51 134 2.0 5.0 0.00 0.00 0.00 74 1026.4
20181019082823 51 134 2.0 5.0 0.00 0.00 0.00 74 1026.4
20181019082730 51 135 3.0 5.0 0.00 0.00 0.00 74 1026.4
20181019082621 51 135 3.0 6.0 0.00 0.00 0.00 74 1026.4
20181019082512 51 190 3.0 6.0 0.00 0.00 0.00 73 1026.5
20181019082424 51 150 3.0 6.0 0.00 0.00 0.00 73 1026.5
20181019082319 51 153 2.0 6.0 0.00 0.00 0.00 73 1026.6
20181019082227 51 167 3.0 6.0 0.00 0.00 0.00 73 1026.6
20181019082118 51 167 2.0 6.0 0.00 0.00 0.00 73 1026.6
20181019082029 51 181 2.0 6.0 0.00 0.00 0.00 73 1026.6
20181019081921 51 181 3.0 6.0 0.00 0.00 0.00 73 1026.7
20181019081818 51 192 3.0 7.0 0.00 0.00 0.00 73 1026.6
20181019081725 51 159 2.0 7.0 0.00 0.00 0.00 73 1026.5
20181019081616 51 168 2.0 6.0 0.00 0.00 0.00 73 1026.6
20181019081527 51 168 3.0 6.0 0.00 0.00 0.00 73 1026.6
20181019081419 51 167 4.0 6.0 0.00 0.00 0.00 73 1026.6
20181019081315 51 169 3.0 7.0 0.00 0.00 0.00 73 1026.5
20181019081223 52 170 3.0 8.0 0.00 0.00 0.00 72 1026.6
20181019081115 52 107 3.0 8.0 0.00 0.00 0.00 72 1026.7
20181019081026 52 165 3.0 8.0 0.00 0.00 0.00 72 1026.7
20181019080918 52 181 3.0 8.0 0.00 0.00 0.00 72 1026.7
20181019080814 52 167 2.0 8.0 0.00 0.00 0.00 72 1026.7
20181019080721 52 144 3.0 8.0 0.00 0.00 0.00 72 1026.7
20181019080613 52 145 4.0 10.0 0.00 0.00 0.00 72 1026.7
20181019080524 52 163 4.0 10.0 0.00 0.00 0.00 72 1026.7
20181019080415 52 186 4.0 10.0 0.00 0.00 0.00 71 1026.7
20181019080326 52 115 5.0 10.0 0.00 0.00 0.00 71 1026.6
20181019080219 52 172 4.0 10.0 0.00 0.00 0.00 71 1026.6
20181019080130 52 142 4.0 10.0 0.00 0.00 0.00 71 1026.7
20181019080022 52 152 3.0 10.0 0.00 0.00 0.00 71 1026.6
20181019075913 52 157 5.0 10.0 0.00 0.00 0.00 71 1026.6
20181019075825 52 142 6.0 10.0 0.00 0.00 0.00 71 1026.6
20181019075727 52 151 4.0 9.0 0.00 0.00 0.00 71 1026.6
20181019075516 52 114 4.0 9.0 0.00 0.00 0.00 71 1026.7
20181019075427 52 171 3.0 9.0 0.00 0.00 0.00 71 1026.8
20181019075319 52 165 4.0 8.0 0.00 0.00 0.00 71 1026.8
20181019075230 52 173 3.0 8.0 0.00 0.00 0.00 71 1026.9
20181019075122 52 187 2.0 8.0 0.00 0.00 0.00 71 1026.9
20181019075014 52 189 2.0 8.0 0.00 0.00 0.00 71 1027.0
20181019074925 52 189 3.0 10.0 0.00 0.00 0.00 71 1027.0
20181019074817 52 204 5.0 10.0 0.00 0.00 0.00 71 1026.9
20181019074730 52 181 5.0 10.0 0.00 0.00 0.00 71 1026.9
20181019074621 51 181 5.0 10.0 0.00 0.00 0.00 72 1026.8
20181019074512 51 111 5.0 10.0 0.00 0.00 0.00 72 1026.8
20181019074423 51 178 5.0 10.0 0.00 0.00 0.00 72 1026.8
20181019074314 51 142 5.0 10.0 0.00 0.00 0.00 72 1026.8
20181019074226 51 155 5.0 10.0 0.00 0.00 0.00 72 1026.9
20181019074117 51 109 6.0 10.0 0.00 0.00 0.00 73 1027.0
20181019074029 51 160 5.0 9.0 0.00 0.00 0.00 73 1027.0
20181019073921 51 161 4.0 8.0 0.00 0.00 0.00 73 1027.1
20181019073812 51 146 4.0 7.0 0.00 0.00 0.00 73 1027.2
20181019073724 51 163 3.0 7.0 0.00 0.00 0.00 73 1027.2
20181019073615 51 117 3.0 7.0 0.00 0.00 0.00 72 1027.2
20181019073527 51 152 3.0 7.0 0.00 0.00 0.00 72 1027.3
20181019073418 51 211 2.0 7.0 0.00 0.00 0.00 72 1027.3
20181019073330 51 192 2.0 7.0 0.00 0.00 0.00 72 1027.3
20181019073221 51 185 3.0 7.0 0.00 0.00 0.00 72 1027.3
20181019073112 51 169 2.0 7.0 0.00 0.00 0.00 72 1027.3
20181019073023 51 215 1.0 4.0 0.00 0.00 0.00 72 1027.3
20181019072915 51 215 2.0 4.0 0.00 0.00 0.00 71 1027.4
20181019072828 51 215 2.0 6.0 0.00 0.00 0.00 71 1027.3
20181019072719 51 192 1.0 6.0 0.00 0.00 0.00 71 1027.4
20181019072630 51 184 1.0 9.0 0.00 0.00 0.00 71 1027.4
20181019072522 51 184 1.0 9.0 0.00 0.00 0.00 71 1027.4
20181019072413 51 184 1.0 9.0 0.00 0.00 0.00 70 1027.3
20181019072325 51 184 1.0 9.0 0.00 0.00 0.00 70 1027.3
20181019072217 51 184 2.0 9.0 0.00 0.00 0.00 70 1027.3
20181019072128 51 158 3.0 9.0 0.00 0.00 0.00 69 1027.3
20181019072020 51 219 4.0 9.0 0.00 0.00 0.00 69 1027.2
20181019071932 51 137 4.0 9.0 0.00 0.00 0.00 69 1027.1
20181019071823 51 190 5.0 9.0 0.00 0.00 0.00 69 1027.1
20181019071716 51 151 6.0 9.0 0.00 0.00 0.00 69 1027.1
20181019071628 51 157 6.0 9.0 0.00 0.00 0.00 70 1027.1
20181019071519 51 173 5.0 8.0 0.00 0.00 0.00 70 1027.1
20181019071430 51 142 5.0 8.0 0.00 0.00 0.00 69 1027.0
20181019071321 51 134 5.0 8.0 0.00 0.00 0.00 69 1027.0
20181019071212 51 145 5.0 8.0 0.00 0.00 0.00 69 1027.0
20181019071124 51 153 5.0 8.0 0.00 0.00 0.00 70 1027.0
20181019071014 51 150 5.0 7.0 0.00 0.00 0.00 70 1027.1
20181019070926 51 162 4.0 7.0 0.00 0.00 0.00 70 1027.1
20181019070818 51 145 3.0 7.0 0.00 0.00 0.00 70 1027.1
20181019070730 51 143 2.0 7.0 0.00 0.00 0.00 70 1027.1
20181019070622 51 155 2.0 7.0 0.00 0.00 0.00 70 1027.1
20181019070512 51 155 2.0 7.0 0.00 0.00 0.00 70 1027.0
20181019070424 51 163 2.0 7.0 0.00 0.00 0.00 70 1027.0
20181019070314 51 163 2.0 7.0 0.00 0.00 0.00 69 1027.1
20181019070225 51 144 3.0 7.0 0.00 0.00 0.00 69 1027.1
20181019070116 51 150 4.0 7.0 0.00 0.00 0.00 70 1027.1
20181019070027 51 148 3.0 7.0 0.00 0.00 0.00 70 1027.1
20181019065918 51 160 3.0 7.0 0.00 0.00 0.00 70 1027.1
20181019065830 51 130 3.0 7.0 0.00 0.00 0.00 70 1027.1
20181019065733 51 145 4.0 7.0 0.00 0.00 0.00 70 1027.1
20181019065631 51 149 4.0 7.0 0.00 0.00 0.00 69 1027.2
20181019065522 51 165 4.0 7.0 0.00 0.00 0.00 69 1027.2
20181019065413 51 144 3.0 5.0 0.00 0.00 0.00 69 1027.2
20181019065326 51 165 2.0 5.0 0.00 0.00 0.00 70 1027.2
20181019065216 51 165 0.0 5.0 0.00 0.00 0.00 69 1027.3
20181019065127 51 165 0.0 5.0 0.00 0.00 0.00 69 1027.3
20181019065018 51 165 0.0 6.0 0.00 0.00 0.00 69 1027.3
20181019064930 51 165 1.0 6.0 0.00 0.00 0.00 69 1027.3
20181019064822 51 165 1.0 6.0 0.00 0.00 0.00 68 1027.3
20181019064713 51 165 2.0 6.0 0.00 0.00 0.00 68 1027.4
20181019064624 51 165 3.0 6.0 0.00 0.00 0.00 68 1027.4
20181019064516 51 165 3.0 6.0 0.00 0.00 0.00 68 1027.3
20181019064427 51 165 3.0 6.0 0.00 0.00 0.00 68 1027.3
20181019064319 51 165 4.0 6.0 0.00 0.00 0.00 68 1027.3
20181019064227 51 165 4.0 6.0 0.00 0.00 0.00 68 1027.2
20181019064123 51 165 2.0 5.0 0.00 0.00 0.00 68 1027.2
20181019064014 51 165 2.0 5.0 0.00 0.00 0.00 68 1027.2
20181019063926 51 165 2.0 5.0 0.00 0.00 0.00 69 1027.2
20181019063818 51 154 2.0 5.0 0.00 0.00 0.00 69 1027.2
20181019063726 51 154 3.0 5.0 0.00 0.00 0.00 69 1027.3
20181019063622 51 154 2.0 5.0 0.00 0.00 0.00 69 1027.3
20181019063513 51 139 2.0 4.0 0.00 0.00 0.00 69 1027.3
20181019063424 51 139 2.0 4.0 0.00 0.00 0.00 70 1027.3
20181019063316 50 139 2.0 4.0 0.00 0.00 0.00 70 1027.4
20181019063225 50 139 2.0 3.0 0.00 0.00 0.00 70 1027.3
20181019063141 50 139 2.0 3.0 0.00 0.00 0.00 70 1027.3
20181019063031 50 158 2.0 3.0 0.00 0.00 0.00 71 1027.4
20181019062923 50 163 2.0 3.0 0.00 0.00 0.00 71 1027.4
20181019062815 50 163 2.0 2.0 0.00 0.00 0.00 71 1027.4
20181019062722 50 163 1.0 2.0 0.00 0.00 0.00 71 1027.4
20181019062618 50 163 1.0 2.0 0.00 0.00 0.00 72 1027.4
20181019062529 50 163 0.0 0.0 0.00 0.00 0.00 72 1027.4
20181019062421 50 163 0.0 0.0 0.00 0.00 0.00 72 1027.4
20181019062312 50 163 0.0 0.0 0.00 0.00 0.00 72 1027.5
20181019062220 50 163 0.0 0.0 0.00 0.00 0.00 72 1027.5
20181019062115 50 163 0.0 0.0 0.00 0.00 0.00 72 1027.5
20181019062026 50 163 0.0 0.0 0.00 0.00 0.00 72 1027.6
20181019061917 50 163 0.0 0.0 0.00 0.00 0.00 72 1027.6
20181019061829 50 163 0.0 0.0 0.00 0.00 0.00 72 1027.6
20181019061717 50 163 0.0 0.0 0.00 0.00 0.00 72 1027.6
20181019061612 50 163 0.0 0.0 0.00 0.00 0.00 72 1027.6
20181019061524 50 163 0.0 0.0 0.00 0.00 0.00 72 1027.6
20181019061416 50 163 0.0 0.0 0.00 0.00 0.00 72 1027.6
20181019061327 50 163 0.0 0.0 0.00 0.00 0.00 72 1027.6
20181019061215 51 163 0.0 3.0 0.00 0.00 0.00 72 1027.5
20181019061131 51 163 0.0 3.0 0.00 0.00 0.00 72 1027.5
20181019061021 51 163 0.0 3.0 0.00 0.00 0.00 73 1027.5
20181019060913 51 163 0.0 3.0 0.00 0.00 0.00 74 1027.5
20181019060825 51 163 0.0 3.0 0.00 0.00 0.00 74 1027.5
20181019060712 51 163 0.0 3.0 0.00 0.00 0.00 73 1027.5
20181019060628 51 163 0.0 3.0 0.00 0.00 0.00 73 1027.5
20181019060519 51 163 1.0 3.0 0.00 0.00 0.00 72 1027.5
20181019060431 52 163 1.0 3.0 0.00 0.00 0.00 72 1027.6
20181019060323 52 163 1.0 2.0 0.00 0.00 0.00 72 1027.6
20181019060231 52 163 1.0 2.0 0.00 0.00 0.00 71 1027.6
20181019060126 52 163 0.0 2.0 0.00 0.00 0.00 69 1027.7
20181019060018 52 163 0.0 2.0 0.00 0.00 0.00 68 1027.6
20181019055930 52 163 0.0 2.0 0.00 0.00 0.00 68 1027.6
20181019055822 52 163 0.0 2.0 0.00 0.00 0.00 68 1027.5
20181019055742 52 163 0.0 2.0 0.00 0.00 0.00 68 1027.6
20181019055623 52 163 1.0 3.0 0.00 0.00 0.00 68 1027.5
20181019055514 52 163 1.0 5.0 0.00 0.00 0.00 67 1027.6
20181019055425 52 163 1.0 5.0 0.00 0.00 0.00 67 1027.6
20181019055317 52 163 1.0 5.0 0.00 0.00 0.00 67 1027.5
20181019055225 52 163 1.0 7.0 0.00 0.00 0.00 67 1027.5
20181019055120 52 163 1.0 7.0 0.00 0.00 0.00 67 1027.5
20181019055012 52 163 1.0 8.0 0.00 0.00 0.00 66 1027.5
20181019054924 53 163 2.0 8.0 0.00 0.00 0.00 66 1027.5
20181019054816 53 163 3.0 8.0 0.00 0.00 0.00 64 1027.5
20181019054724 53 162 2.0 9.0 0.00 0.00 0.00 64 1027.5
20181019054619 53 161 2.0 9.0 0.00 0.00 0.00 64 1027.5
20181019054530 53 161 3.0 9.0 0.00 0.00 0.00 64 1027.5
20181019054421 53 120 3.0 9.0 0.00 0.00 0.00 65 1027.5
20181019054312 52 181 3.0 9.0 0.00 0.00 0.00 65 1027.5
20181019054221 52 149 3.0 9.0 0.00 0.00 0.00 65 1027.5
20181019054116 52 147 4.0 9.0 0.00 0.00 0.00 65 1027.4
20181019054028 52 130 4.0 9.0 0.00 0.00 0.00 65 1027.5
20181019053920 52 136 5.0 9.0 0.00 0.00 0.00 65 1027.4
20181019053812 52 149 4.0 8.0 0.00 0.00 0.00 66 1027.4
20181019053719 52 134 4.0 7.0 0.00 0.00 0.00 66 1027.4
20181019053614 52 130 4.0 5.0 0.00 0.00 0.00 67 1027.5
20181019053525 52 128 3.0 5.0 0.00 0.00 0.00 67 1027.5
20181019053416 52 140 3.0 4.0 0.00 0.00 0.00 67 1027.6
20181019053327 52 140 3.0 4.0 0.00 0.00 0.00 67 1027.7
20181019053214 52 146 3.0 4.0 0.00 0.00 0.00 67 1027.7
20181019053125 52 146 3.0 3.0 0.00 0.00 0.00 67 1027.7
20181019053020 52 146 3.0 3.0 0.00 0.00 0.00 68 1027.7
20181019052931 52 146 2.0 3.0 0.00 0.00 0.00 68 1027.7
20181019052823 53 146 1.0 3.0 0.00 0.00 0.00 69 1027.8
20181019052731 53 146 0.0 2.0 0.00 0.00 0.00 70 1027.7
20181019052623 53 146 0.0 2.0 0.00 0.00 0.00 70 1027.8
20181019052518 53 146 0.0 2.0 0.00 0.00 0.00 69 1027.8
20181019052429 53 146 0.0 6.0 0.00 0.00 0.00 69 1027.9
20181019052321 53 146 0.0 6.0 0.00 0.00 0.00 68 1027.9
20181019052229 53 146 1.0 6.0 0.00 0.00 0.00 67 1027.9
20181019052121 53 146 1.0 6.0 0.00 0.00 0.00 64 1027.8
20181019052016 53 146 0.0 6.0 0.00 0.00 0.00 64 1027.8
20181019051928 53 146 0.0 6.0 0.00 0.00 0.00 64 1027.8
20181019051820 53 146 1.0 6.0 0.00 0.00 0.00 64 1027.8
20181019051729 53 146 2.0 6.0 0.00 0.00 0.00 64 1027.8
20181019051621 53 117 3.0 6.0 0.00 0.00 0.00 64 1027.8
20181019051517 53 144 3.0 6.0 0.00 0.00 0.00 64 1027.7
20181019051429 53 143 3.0 6.0 0.00 0.00 0.00 64 1027.7
20181019051321 53 149 2.0 5.0 0.00 0.00 0.00 64 1027.7
20181019051229 53 151 3.0 5.0 0.00 0.00 0.00 63 1027.7
20181019051121 53 151 2.0 5.0 0.00 0.00 0.00 63 1027.7
20181019051016 53 147 2.0 4.0 0.00 0.00 0.00 63 1027.7
20181019050928 53 147 2.0 4.0 0.00 0.00 0.00 63 1027.7
20181019050820 53 147 1.0 8.0 0.00 0.00 0.00 63 1027.8
20181019050729 53 147 1.0 8.0 0.00 0.00 0.00 63 1027.8
20181019050620 54 147 2.0 8.0 0.00 0.00 0.00 62 1027.8
20181019050515 54 147 1.0 8.0 0.00 0.00 0.00 63 1027.8
20181019050427 54 147 2.0 8.0 0.00 0.00 0.00 62 1027.8
20181019050319 54 147 2.0 8.0 0.00 0.00 0.00 62 1027.8
20181019050227 54 147 1.0 8.0 0.00 0.00 0.00 61 1027.8
20181019050118 54 147 2.0 8.0 0.00 0.00 0.00 61 1027.8
20181019050013 54 147 3.0 8.0 0.00 0.00 0.00 61 1027.8
20181019045925 54 145 4.0 8.0 0.00 0.00 0.00 61 1027.8
20181019045817 54 144 3.0 8.0 0.00 0.00 0.00 61 1027.8
20181019045733 54 152 3.0 8.0 0.00 0.00 0.00 61 1027.7
20181019045631 54 129 3.0 9.0 0.00 0.00 0.00 60 1027.7
20181019045527 54 128 4.0 9.0 0.00 0.00 0.00 60 1027.7
20181019045419 54 171 4.0 9.0 0.00 0.00 0.00 60 1027.7
20181019045330 54 148 3.0 9.0 0.00 0.00 0.00 60 1027.7
20181019045217 54 157 4.0 9.0 0.00 0.00 0.00 60 1027.7
20181019045128 54 142 4.0 9.0 0.00 0.00 0.00 60 1027.8
20181019045024 54 121 5.0 9.0 0.00 0.00 0.00 60 1027.7
20181019044915 54 150 5.0 9.0 0.00 0.00 0.00 61 1027.7
20181019044827 54 121 5.0 9.0 0.00 0.00 0.00 61 1027.7
20181019044714 54 153 3.0 10.0 0.00 0.00 0.00 61 1027.7
20181019044625 54 163 4.0 10.0 0.00 0.00 0.00 60 1027.8
20181019044521 54 135 4.0 10.0 0.00 0.00 0.00 60 1027.8
20181019044412 54 148 5.0 10.0 0.00 0.00 0.00 61 1027.8
20181019044324 54 130 4.0 10.0 0.00 0.00 0.00 60 1027.8
20181019044212 54 150 5.0 10.0 0.00 0.00 0.00 61 1027.9
20181019044123 54 96 5.0 10.0 0.00 0.00 0.00 60 1027.9
20181019044018 54 142 4.0 10.0 0.00 0.00 0.00 60 1027.9
20181019043929 54 123 4.0 11.0 0.00 0.00 0.00 60 1027.9
20181019043821 54 134 4.0 11.0 0.00 0.00 0.00 60 1027.9
20181019043728 54 140 4.0 11.0 0.00 0.00 0.00 60 1028.0
20181019043620 54 136 4.0 11.0 0.00 0.00 0.00 60 1028.0
20181019043515 53 122 4.0 11.0 0.00 0.00 0.00 60 1028.0
20181019043426 54 134 4.0 11.0 0.00 0.00 0.00 60 1028.0
20181019043318 53 144 4.0 11.0 0.00 0.00 0.00 60 1028.0
20181019043227 53 148 3.0 11.0 0.00 0.00 0.00 60 1028.0
20181019043118 53 155 2.0 10.0 0.00 0.00 0.00 60 1028.1
20181019043013 53 153 4.0 10.0 0.00 0.00 0.00 60 1028.1
20181019042925 53 146 4.0 10.0 0.00 0.00 0.00 60 1028.1
20181019042817 53 162 5.0 10.0 0.00 0.00 0.00 60 1028.2
20181019042726 53 151 4.0 10.0 0.00 0.00 0.00 60 1028.1
20181019042618 53 125 3.0 9.0 0.00 0.00 0.00 60 1028.1
20181019042513 53 128 3.0 9.0 0.00 0.00 0.00 60 1028.2
20181019042425 53 150 3.0 9.0 0.00 0.00 0.00 60 1028.2
20181019042317 53 149 4.0 9.0 0.00 0.00 0.00 59 1028.2
20181019042225 53 138 4.0 9.0 0.00 0.00 0.00 59 1028.3
20181019042117 53 138 3.0 9.0 0.00 0.00 0.00 60 1028.3
20181019042012 53 146 4.0 9.0 0.00 0.00 0.00 59 1028.4
20181019041923 53 152 4.0 9.0 0.00 0.00 0.00 59 1028.4
20181019041815 53 125 4.0 9.0 0.00 0.00 0.00 59 1028.3
20181019041722 53 160 5.0 9.0 0.00 0.00 0.00 59 1028.3
20181019041613 53 153 5.0 9.0 0.00 0.00 0.00 59 1028.3
20181019041528 53 140 5.0 9.0 0.00 0.00 0.00 59 1028.3
20181019041419 53 140 4.0 8.0 0.00 0.00 0.00 59 1028.4
20181019041331 53 154 3.0 8.0 0.00 0.00 0.00 59 1028.3
20181019041220 53 125 4.0 8.0 0.00 0.00 0.00 60 1028.3
20181019041131 53 142 5.0 8.0 0.00 0.00 0.00 60 1028.4
20181019041026 53 88 5.0 8.0 0.00 0.00 0.00 60 1028.4
20181019040917 53 126 5.0 8.0 0.00 0.00 0.00 60 1028.4
20181019040829 53 140 4.0 8.0 0.00 0.00 0.00 60 1028.4
20181019040717 53 128 4.0 7.0 0.00 0.00 0.00 61 1028.4
20181019040629 53 126 4.0 7.0 0.00 0.00 0.00 61 1028.5
20181019040524 53 97 3.0 7.0 0.00 0.00 0.00 61 1028.5
20181019040416 53 123 3.0 6.0 0.00 0.00 0.00 61 1028.5
20181019040327 53 105 3.0 6.0 0.00 0.00 0.00 61 1028.6
20181019040216 53 123 3.0 5.0 0.00 0.00 0.00 61 1028.6
20181019040128 53 141 2.0 4.0 0.00 0.00 0.00 61 1028.7
20181019040024 53 151 2.0 5.0 0.00 0.00 0.00 61 1028.7
20181019035915 53 121 2.0 4.0 0.00 0.00 0.00 61 1028.7
20181019035827 53 121 2.0 4.0 0.00 0.00 0.00 61 1028.8
20181019035726 53 149 2.0 6.0 0.00 0.00 0.00 61 1028.8
20181019035624 53 149 2.0 7.0 0.00 0.00 0.00 61 1028.8
20181019035519 53 152 1.0 7.0 0.00 0.00 0.00 61 1028.9
20181019035430 53 152 1.0 7.0 0.00 0.00 0.00 61 1028.9
20181019035321 53 152 1.0 7.0 0.00 0.00 0.00 61 1028.9
20181019035229 53 152 2.0 7.0 0.00 0.00 0.00 61 1028.9
20181019035120 53 152 3.0 7.0 0.00 0.00 0.00 61 1028.9
20181019035015 53 159 3.0 7.0 0.00 0.00 0.00 61 1028.9
20181019034927 53 158 3.0 7.0 0.00 0.00 0.00 61 1028.9
20181019034819 53 159 4.0 7.0 0.00 0.00 0.00 61 1028.9
20181019034727 53 166 3.0 5.0 0.00 0.00 0.00 61 1028.9
20181019034617 53 166 2.0 4.0 0.00 0.00 0.00 61 1028.9
20181019034512 53 166 2.0 3.0 0.00 0.00 0.00 61 1028.9
20181019034423 53 166 2.0 4.0 0.00 0.00 0.00 61 1028.9
20181019034314 53 166 3.0 3.0 0.00 0.00 0.00 61 1029.0
20181019034222 53 166 3.0 3.0 0.00 0.00 0.00 61 1029.0
20181019034113 53 166 2.0 4.0 0.00 0.00 0.00 61 1029.0
20181019034025 53 166 2.0 3.0 0.00 0.00 0.00 61 1029.0
20181019033921 53 166 2.0 3.0 0.00 0.00 0.00 61 1029.0
20181019033812 53 166 3.0 3.0 0.00 0.00 0.00 61 1029.0
20181019033721 53 166 3.0 3.0 0.00 0.00 0.00 61 1029.0
20181019033612 53 166 2.0 3.0 0.00 0.00 0.00 61 1029.0
20181019033523 53 166 2.0 4.0 0.00 0.00 0.00 61 1029.0
20181019033419 53 166 1.0 3.0 0.00 0.00 0.00 61 1028.9
20181019033331 53 166 0.0 4.0 0.00 0.00 0.00 61 1029.0
20181019033218 53 166 0.0 2.0 0.00 0.00 0.00 61 1029.0
20181019033130 53 166 0.0 2.0 0.00 0.00 0.00 62 1029.0
20181019033021 53 166 0.0 3.0 0.00 0.00 0.00 62 1029.0
20181019032916 53 166 0.0 3.0 0.00 0.00 0.00 62 1029.1
20181019032828 53 166 1.0 3.0 0.00 0.00 0.00 62 1029.0
20181019032715 53 166 1.0 3.0 0.00 0.00 0.00 61 1029.1
20181019032626 53 166 0.0 3.0 0.00 0.00 0.00 61 1029.1
20181019032517 53 166 0.0 3.0 0.00 0.00 0.00 61 1029.0
20181019032413 53 166 1.0 3.0 0.00 0.00 0.00 60 1029.1
20181019032324 53 166 2.0 3.0 0.00 0.00 0.00 60 1029.1
20181019032231 53 166 2.0 4.0 0.00 0.00 0.00 60 1029.0
20181019032123 53 119 1.0 4.0 0.00 0.00 0.00 59 1029.0
20181019032014 53 119 1.0 4.0 0.00 0.00 0.00 59 1029.0
20181019031929 53 119 1.0 4.0 0.00 0.00 0.00 59 1028.9
20181019031822 53 119 1.0 4.0 0.00 0.00 0.00 59 1028.9
20181019031729 53 119 1.0 4.0 0.00 0.00 0.00 59 1028.8
20181019031620 53 120 2.0 4.0 0.00 0.00 0.00 59 1028.8
20181019031531 53 120 2.0 4.0 0.00 0.00 0.00 59 1028.8
20181019031426 53 109 2.0 3.0 0.00 0.00 0.00 59 1028.8
20181019031317 53 109 2.0 3.0 0.00 0.00 0.00 59 1028.8
20181019031225 53 93 1.0 3.0 0.00 0.00 0.00 59 1028.9
20181019031117 53 93 0.0 3.0 0.00 0.00 0.00 59 1028.9
20181019031028 53 93 0.0 3.0 0.00 0.00 0.00 59 1028.9
20181019030924 53 93 0.0 3.0 0.00 0.00 0.00 59 1028.9
20181019030816 53 93 1.0 3.0 0.00 0.00 0.00 59 1029.0
20181019030724 53 93 1.0 3.0 0.00 0.00 0.00 59 1029.0
20181019030615 53 93 1.0 3.0 0.00 0.00 0.00 59 1029.0
20181019030527 53 93 1.0 3.0 0.00 0.00 0.00 59 1029.0
20181019030422 53 93 0.0 2.0 0.00 0.00 0.00 59 1029.1
20181019030313 53 93 0.0 2.0 0.00 0.00 0.00 59 1029.1
20181019030221 53 93 0.0 3.0 0.00 0.00 0.00 59 1029.1
20181019030112 53 93 0.0 3.0 0.00 0.00 0.00 60 1029.1
20181019030024 53 93 1.0 3.0 0.00 0.00 0.00 60 1029.1
20181019025919 53 93 1.0 4.0 0.00 0.00 0.00 60 1029.2
20181019025831 53 93 0.0 6.0 0.00 0.00 0.00 60 1029.1
20181019025729 53 93 0.0 6.0 0.00 0.00 0.00 60 1029.1
20181019025627 53 93 1.0 6.0 0.00 0.00 0.00 59 1029.1
20181019025519 53 93 1.0 6.0 0.00 0.00 0.00 59 1029.1
20181019025415 53 93 1.0 6.0 0.00 0.00 0.00 59 1029.1
20181019025128 53 103 2.0 6.0 0.00 0.00 0.00 59 1029.2
20181019025020 53 97 2.0 6.0 0.00 0.00 0.00 59 1029.2
20181019024915 53 131 1.0 4.0 0.00 0.00 0.00 60 1029.2
20181019024827 53 131 2.0 4.0 0.00 0.00 0.00 60 1029.2
20181019024714 53 131 1.0 4.0 0.00 0.00 0.00 61 1029.2
20181019024626 53 131 1.0 4.0 0.00 0.00 0.00 61 1029.2
20181019024518 53 131 1.0 4.0 0.00 0.00 0.00 61 1029.2
20181019024413 53 131 2.0 4.0 0.00 0.00 0.00 61 1029.2
20181019024324 53 131 1.0 3.0 0.00 0.00 0.00 61 1029.2
20181019024212 53 155 1.0 2.0 0.00 0.00 0.00 61 1029.2
20181019024124 53 155 1.0 2.0 0.00 0.00 0.00 62 1029.2
20181019024015 53 155 1.0 2.0 0.00 0.00 0.00 62 1029.2
20181019023930 53 155 1.0 2.0 0.00 0.00 0.00 62 1029.2
20181019023822 52 155 1.0 2.0 0.00 0.00 0.00 62 1029.2
20181019023731 52 155 1.0 2.0 0.00 0.00 0.00 63 1029.2
20181019023622 52 155 1.0 2.0 0.00 0.00 0.00 63 1029.2
20181019023513 52 155 1.0 2.0 0.00 0.00 0.00 64 1029.2
20181019023429 52 155 0.0 2.0 0.00 0.00 0.00 64 1029.2
20181019023320 52 155 1.0 2.0 0.00 0.00 0.00 65 1029.2
20181019023225 53 155 1.0 2.0 0.00 0.00 0.00 66 1029.2
20181019023116 53 155 1.0 2.0 0.00 0.00 0.00 67 1029.2
20181019023028 53 155 1.0 2.0 0.00 0.00 0.00 67 1029.2
20181019022924 53 155 1.0 2.0 0.00 0.00 0.00 67 1029.3
20181019022816 53 155 0.0 2.0 0.00 0.00 0.00 67 1029.3
20181019022723 53 155 0.0 2.0 0.00 0.00 0.00 67 1029.2
20181019022614 53 155 0.0 2.0 0.00 0.00 0.00 67 1029.2
20181019022526 53 155 0.0 2.0 0.00 0.00 0.00 67 1029.3
20181019022421 53 155 0.0 2.0 0.00 0.00 0.00 68 1029.2
20181019022312 53 155 0.0 2.0 0.00 0.00 0.00 68 1029.3
20181019022221 53 155 0.0 2.0 0.00 0.00 0.00 68 1029.3
20181019022112 53 155 1.0 2.0 0.00 0.00 0.00 68 1029.4
20181019022024 53 155 1.0 2.0 0.00 0.00 0.00 67 1029.4
20181019021919 53 155 1.0 2.0 0.00 0.00 0.00 66 1029.4
20181019021832 53 155 1.0 2.0 0.00 0.00 0.00 65 1029.4
20181019021719 53 155 1.0 2.0 0.00 0.00 0.00 64 1029.4
20181019021631 53 155 0.0 2.0 0.00 0.00 0.00 62 1029.4
20181019021522 53 155 0.0 2.0 0.00 0.00 0.00 62 1029.4
20181019021417 53 155 0.0 2.0 0.00 0.00 0.00 61 1029.4
20181019021328 53 155 0.0 2.0 0.00 0.00 0.00 61 1029.4
20181019021216 53 155 0.0 3.0 0.00 0.00 0.00 61 1029.4
20181019021127 54 155 0.0 3.0 0.00 0.00 0.00 61 1029.4
20181019021018 53 155 0.0 5.0 0.00 0.00 0.00 61 1029.4
20181019020913 54 155 0.0 5.0 0.00 0.00 0.00 61 1029.4
20181019020825 54 155 0.0 5.0 0.00 0.00 0.00 61 1029.4
20181019020713 54 155 1.0 5.0 0.00 0.00 0.00 61 1029.4
20181019020624 54 155 1.0 5.0 0.00 0.00 0.00 61 1029.4
20181019020515 54 155 1.0 5.0 0.00 0.00 0.00 61 1029.4
20181019020427 54 155 2.0 5.0 0.00 0.00 0.00 61 1029.4
20181019020323 54 155 2.0 5.0 0.00 0.00 0.00 61 1029.4
20181019020231 54 148 2.0 5.0 0.00 0.00 0.00 61 1029.3
20181019020123 54 138 1.0 5.0 0.00 0.00 0.00 61 1029.3
20181019020014 54 138 1.0 5.0 0.00 0.00 0.00 61 1029.4
20181019015926 54 138 1.0 5.0 0.00 0.00 0.00 61 1029.4
20181019015822 54 138 2.0 5.0 0.00 0.00 0.00 61 1029.4
20181019015741 54 138 2.0 5.0 0.00 0.00 0.00 61 1029.4
20181019015618 54 141 2.0 6.0 0.00 0.00 0.00 61 1029.3
20181019015530 54 141 2.0 6.0 0.00 0.00 0.00 61 1029.3
20181019015421 54 127 2.0 6.0 0.00 0.00 0.00 61 1029.3
20181019015316 54 121 2.0 6.0 0.00 0.00 0.00 61 1029.2
20181019015223 54 112 3.0 6.0 0.00 0.00 0.00 60 1029.2
20181019015115 54 93 3.0 7.0 0.00 0.00 0.00 61 1029.2
20181019015026 54 110 3.0 7.0 0.00 0.00 0.00 61 1029.2
20181019014918 54 82 2.0 7.0 0.00 0.00 0.00 61 1029.2
20181019014814 54 101 3.0 7.0 0.00 0.00 0.00 61 1029.2
20181019014722 54 101 3.0 7.0 0.00 0.00 0.00 61 1029.2
20181019014613 54 102 3.0 8.0 0.00 0.00 0.00 61 1029.2
20181019014525 54 105 3.0 8.0 0.00 0.00 0.00 61 1029.2
20181019014416 54 110 4.0 8.0 0.00 0.00 0.00 60 1029.3
20181019014331 54 132 4.0 8.0 0.00 0.00 0.00 60 1029.3
20181019014218 54 96 3.0 8.0 0.00 0.00 0.00 60 1029.3
20181019014130 54 100 3.0 8.0 0.00 0.00 0.00 60 1029.2
20181019014022 54 118 3.0 8.0 0.00 0.00 0.00 60 1029.2
20181019013913 54 88 4.0 8.0 0.00 0.00 0.00 59 1029.3
20181019013829 54 109 4.0 8.0 0.00 0.00 0.00 59 1029.3
20181019013718 54 90 4.0 7.0 0.00 0.00 0.00 59 1029.3
20181019013630 54 103 4.0 7.0 0.00 0.00 0.00 60 1029.3
20181019013521 54 130 4.0 7.0 0.00 0.00 0.00 60 1029.4
20181019013412 54 106 4.0 6.0 0.00 0.00 0.00 59 1029.4
20181019013328 54 69 3.0 7.0 0.00 0.00 0.00 59 1029.4
20181019013215 54 115 2.0 6.0 0.00 0.00 0.00 59 1029.5
20181019013126 54 128 1.0 6.0 0.00 0.00 0.00 59 1029.5
20181019013017 54 126 1.0 6.0 0.00 0.00 0.00 59 1029.5
20181019012929 54 129 2.0 6.0 0.00 0.00 0.00 59 1029.5
20181019012825 54 121 2.0 6.0 0.00 0.00 0.00 59 1029.5
20181019012714 54 105 1.0 6.0 0.00 0.00 0.00 59 1029.5
20181019012624 54 105 1.0 6.0 0.00 0.00 0.00 59 1029.5
20181019012515 54 105 2.0 6.0 0.00 0.00 0.00 59 1029.5
20181019012426 54 106 3.0 6.0 0.00 0.00 0.00 59 1029.5
20181019012321 54 117 3.0 6.0 0.00 0.00 0.00 58 1029.5
20181019012229 54 119 2.0 8.0 0.00 0.00 0.00 58 1029.4
20181019012121 55 105 2.0 8.0 0.00 0.00 0.00 58 1029.4
20181019012012 55 70 2.0 8.0 0.00 0.00 0.00 58 1029.4
20181019011924 55 109 2.0 8.0 0.00 0.00 0.00 58 1029.4
20181019011820 55 90 3.0 8.0 0.00 0.00 0.00 58 1029.3
20181019011728 55 94 3.0 8.0 0.00 0.00 0.00 58 1029.3
20181019011619 55 73 4.0 8.0 0.00 0.00 0.00 58 1029.3
20181019011530 55 49 4.0 8.0 0.00 0.00 0.00 57 1029.3
20181019011422 55 63 4.0 8.0 0.00 0.00 0.00 57 1029.3
20181019011317 55 100 4.0 9.0 0.00 0.00 0.00 57 1029.3
20181019011225 55 78 3.0 9.0 0.00 0.00 0.00 57 1029.3
20181019011116 55 76 2.0 9.0 0.00 0.00 0.00 57 1029.3
20181019011027 55 90 3.0 9.0 0.00 0.00 0.00 57 1029.3
20181019010918 55 63 4.0 9.0 0.00 0.00 0.00 57 1029.4
20181019010814 55 69 4.0 9.0 0.00 0.00 0.00 56 1029.4
20181019010721 55 104 4.0 9.0 0.00 0.00 0.00 56 1029.4
20181019010612 55 101 4.0 9.0 0.00 0.00 0.00 56 1029.4
20181019010523 55 95 5.0 9.0 0.00 0.00 0.00 56 1029.4
20181019010415 55 107 4.0 8.0 0.00 0.00 0.00 56 1029.4
20181019010331 55 74 5.0 8.0 0.00 0.00 0.00 56 1029.4
20181019010219 55 74 5.0 8.0 0.00 0.00 0.00 55 1029.4
20181019010130 55 86 4.0 8.0 0.00 0.00 0.00 56 1029.4
20181019010021 55 98 4.0 8.0 0.00 0.00 0.00 56 1029.4
20181019005913 55 83 3.0 8.0 0.00 0.00 0.00 55 1029.5
20181019005828 55 82 3.0 8.0 0.00 0.00 0.00 55 1029.5
20181019005727 55 108 4.0 8.0 0.00 0.00 0.00 55 1029.5
20181019005625 55 95 6.0 8.0 0.00 0.00 0.00 56 1029.4
20181019005517 55 77 4.0 8.0 0.00 0.00 0.00 56 1029.4
20181019005428 55 76 4.0 8.0 0.00 0.00 0.00 56 1029.4
20181019005323 55 101 4.0 8.0 0.00 0.00 0.00 56 1029.5
20181019005231 55 80 4.0 8.0 0.00 0.00 0.00 56 1029.5
20181019005123 55 126 4.0 8.0 0.00 0.00 0.00 56 1029.5
20181019005014 55 82 4.0 8.0 0.00 0.00 0.00 56 1029.5
20181019004925 55 105 3.0 8.0 0.00 0.00 0.00 56 1029.5
20181019004821 55 100 4.0 8.0 0.00 0.00 0.00 56 1029.5
20181019004729 55 98 5.0 8.0 0.00 0.00 0.00 56 1029.5
20181019004621 55 86 4.0 8.0 0.00 0.00 0.00 56 1029.4
20181019004512 55 112 4.0 8.0 0.00 0.00 0.00 56 1029.5
20181019004423 55 82 4.0 8.0 0.00 0.00 0.00 56 1029.5
20181019004318 55 88 3.0 8.0 0.00 0.00 0.00 57 1029.4
20181019004225 55 82 3.0 8.0 0.00 0.00 0.00 56 1029.5
20181019004117 55 78 2.0 8.0 0.00 0.00 0.00 57 1029.5
20181019004028 55 96 2.0 8.0 0.00 0.00 0.00 57 1029.5
20181019003920 55 85 3.0 8.0 0.00 0.00 0.00 56 1029.5
20181019003816 55 88 3.0 8.0 0.00 0.00 0.00 57 1029.5
20181019003724 55 114 3.0 8.0 0.00 0.00 0.00 57 1029.4
20181019003616 55 127 3.0 8.0 0.00 0.00 0.00 57 1029.4
20181019003527 55 111 5.0 8.0 0.00 0.00 0.00 56 1029.4
20181019003419 55 94 4.0 8.0 0.00 0.00 0.00 57 1029.4
20181019003315 55 94 2.0 6.0 0.00 0.00 0.00 56 1029.4
20181019003222 55 71 3.0 6.0 0.00 0.00 0.00 56 1029.4
20181019003113 55 82 3.0 8.0 0.00 0.00 0.00 56 1029.4
20181019003024 55 90 3.0 8.0 0.00 0.00 0.00 56 1029.4
20181019002915 55 130 3.0 8.0 0.00 0.00 0.00 56 1029.4
20181019002827 55 93 3.0 8.0 0.00 0.00 0.00 56 1029.4
20181019002719 55 91 3.0 8.0 0.00 0.00 0.00 57 1029.4
20181019002631 55 104 3.0 8.0 0.00 0.00 0.00 56 1029.4
20181019002522 55 82 4.0 8.0 0.00 0.00 0.00 56 1029.4
20181019002413 55 102 4.0 8.0 0.00 0.00 0.00 56 1029.4
20181019002325 55 75 4.0 8.0 0.00 0.00 0.00 56 1029.4
20181019002217 55 103 4.0 6.0 0.00 0.00 0.00 56 1029.4
20181019002128 55 65 3.0 6.0 0.00 0.00 0.00 56 1029.5
20181019002021 55 78 3.0 6.0 0.00 0.00 0.00 57 1029.4
20181019001912 55 72 2.0 6.0 0.00 0.00 0.00 57 1029.5
20181019001824 55 72 2.0 6.0 0.00 0.00 0.00 57 1029.5
20181019001715 55 78 2.0 6.0 0.00 0.00 0.00 57 1029.5
20181019001627 55 74 1.0 6.0 0.00 0.00 0.00 57 1029.5
20181019001518 55 74 2.0 6.0 0.00 0.00 0.00 57 1029.5
20181019001430 55 117 2.0 6.0 0.00 0.00 0.00 57 1029.4
20181019001321 55 90 2.0 5.0 0.00 0.00 0.00 57 1029.4
20181019001213 55 100 3.0 5.0 0.00 0.00 0.00 56 1029.4
20181019001124 55 74 3.0 5.0 0.00 0.00 0.00 56 1029.4
20181019001016 55 76 3.0 7.0 0.00 0.00 0.00 57 1029.4
20181019000927 55 96 3.0 7.0 0.00 0.00 0.00 57 1029.4
20181019000819 55 82 3.0 7.0 0.00 0.00 0.00 56 1029.4
20181019000730 55 77 3.0 7.0 0.00 0.00 0.00 57 1029.4
20181019000621 55 88 2.0 7.0 0.00 0.00 0.00 57 1029.4
20181019000512 55 94 3.0 7.0 0.00 0.00 0.00 56 1029.4
20181019000424 55 100 3.0 7.0 0.00 0.00 0.00 57 1029.4
20181019000315 55 111 3.0 7.0 0.00 0.00 0.00 56 1029.4
20181019000227 55 85 3.0 7.0 0.00 0.00 0.00 56 1029.4
20181019000119 55 77 3.0 6.0 0.00 0.00 0.00 56 1029.4
20181019000030 55 80 2.0 6.0 0.00 0.00 0.00 56 1029.4
20181018235922 55 87 2.0 6.0 0.00 0.00 0.00 56 1029.4
20181018235813 55 87 2.0 6.0 0.00 0.00 0.00 56 1029.4
20181018235735 55 87 2.0 6.0 0.00 0.00 0.00 56 1029.4
20181018235629 55 78 2.0 6.0 0.00 0.00 0.00 56 1029.4
20181018235521 55 77 2.0 6.0 0.00 0.00 0.00 56 1029.4
20181018235413 55 80 3.0 6.0 0.00 0.00 0.00 56 1029.4
20181018235323 55 80 4.0 6.0 0.00 0.00 0.00 56 1029.4
20181018235214 55 78 3.0 6.0 0.00 0.00 0.00 56 1029.3
20181018235126 55 82 3.0 7.0 0.00 0.00 0.00 56 1029.3
20181018235018 55 81 2.0 7.0 0.00 0.00 0.00 56 1029.3
20181018234930 55 80 2.0 7.0 0.00 0.00 0.00 57 1029.3
20181018234822 55 82 3.0 7.0 0.00 0.00 0.00 56 1029.4
20181018234715 55 86 4.0 7.0 0.00 0.00 0.00 56 1029.4
20181018234626 55 82 4.0 7.0 0.00 0.00 0.00 57 1029.4
20181018234517 55 92 3.0 6.0 0.00 0.00 0.00 57 1029.3
20181018234428 56 107 3.0 6.0 0.00 0.00 0.00 57 1029.4
20181018234319 56 88 2.0 6.0 0.00 0.00 0.00 57 1029.4
20181018234212 56 85 2.0 6.0 0.00 0.00 0.00 57 1029.4
20181018234123 56 86 2.0 6.0 0.00 0.00 0.00 56 1029.4
20181018234014 56 88 3.0 6.0 0.00 0.00 0.00 57 1029.4
20181018233926 56 76 2.0 7.0 0.00 0.00 0.00 56 1029.4
20181018233818 56 94 2.0 6.0 0.00 0.00 0.00 56 1029.3
20181018233729 56 94 3.0 6.0 0.00 0.00 0.00 56 1029.3
20181018233620 56 86 3.0 6.0 0.00 0.00 0.00 56 1029.3
20181018233530 56 94 3.0 6.0 0.00 0.00 0.00 56 1029.4
20181018233422 56 97 3.0 6.0 0.00 0.00 0.00 56 1029.4
20181018233313 56 97 2.0 6.0 0.00 0.00 0.00 56 1029.4
20181018233225 56 97 2.0 6.0 0.00 0.00 0.00 56 1029.4
20181018233115 56 97 2.0 6.0 0.00 0.00 0.00 56 1029.4
20181018233026 56 98 2.0 6.0 0.00 0.00 0.00 56 1029.5
20181018232917 56 91 3.0 6.0 0.00 0.00 0.00 56 1029.5
20181018232830 56 90 2.0 6.0 0.00 0.00 0.00 56 1029.5
20181018232722 56 90 2.0 6.0 0.00 0.00 0.00 55 1029.5
20181018232613 56 90 2.0 8.0 0.00 0.00 0.00 55 1029.6
20181018232524 56 90 2.0 8.0 0.00 0.00 0.00 55 1029.6
20181018232415 56 90 2.0 8.0 0.00 0.00 0.00 55 1029.5
20181018232326 56 90 2.0 8.0 0.00 0.00 0.00 55 1029.5
20181018232218 56 90 3.0 8.0 0.00 0.00 0.00 55 1029.5
20181018232130 56 94 3.0 8.0 0.00 0.00 0.00 55 1029.5
20181018232022 56 98 2.0 8.0 0.00 0.00 0.00 55 1029.5
20181018231913 56 88 3.0 8.0 0.00 0.00 0.00 55 1029.5
20181018231825 56 93 3.0 8.0 0.00 0.00 0.00 55 1029.5
20181018231717 56 108 2.0 6.0 0.00 0.00 0.00 55 1029.5
20181018231629 56 109 2.0 6.0 0.00 0.00 0.00 55 1029.4
20181018231520 56 109 2.0 6.0 0.00 0.00 0.00 55 1029.5
20181018231412 56 109 3.0 6.0 0.00 0.00 0.00 55 1029.5
20181018231323 56 96 2.0 7.0 0.00 0.00 0.00 55 1029.5
20181018231215 56 75 2.0 8.0 0.00 0.00 0.00 55 1029.4
20181018231127 56 71 3.0 8.0 0.00 0.00 0.00 54 1029.5
20181018231018 56 65 4.0 8.0 0.00 0.00 0.00 54 1029.4
20181018230929 56 88 4.0 8.0 0.00 0.00 0.00 55 1029.5
20181018230821 56 74 3.0 8.0 0.00 0.00 0.00 54 1029.5
20181018230713 56 61 3.0 8.0 0.00 0.00 0.00 54 1029.6
20181018230624 56 58 4.0 8.0 0.00 0.00 0.00 55 1029.6
20181018230515 56 68 4.0 8.0 0.00 0.00 0.00 54 1029.6
20181018230426 56 134 4.0 8.0 0.00 0.00 0.00 54 1029.6
20181018230318 56 96 4.0 6.0 0.00 0.00 0.00 54 1029.6
20181018230226 57 77 4.0 6.0 0.00 0.00 0.00 55 1029.7
20181018230121 57 89 3.0 6.0 0.00 0.00 0.00 55 1029.7
20181018230012 57 96 2.0 7.0 0.00 0.00 0.00 54 1029.7
20181018225923 57 96 2.0 7.0 0.00 0.00 0.00 54 1029.7
20181018225815 57 123 2.0 7.0 0.00 0.00 0.00 54 1029.6
20181018225733 57 90 3.0 7.0 0.00 0.00 0.00 54 1029.6
20181018225614 57 83 3.0 7.0 0.00 0.00 0.00 54 1029.6
20181018225525 57 82 3.0 7.0 0.00 0.00 0.00 54 1029.6
20181018225416 57 102 3.0 6.0 0.00 0.00 0.00 54 1029.7
20181018225328 57 102 2.0 6.0 0.00 0.00 0.00 54 1029.7
20181018225216 57 105 2.0 6.0 0.00 0.00 0.00 53 1029.7
20181018225112 57 105 2.0 6.0 0.00 0.00 0.00 53 1029.7
20181018225023 57 105 2.0 6.0 0.00 0.00 0.00 53 1029.7
20181018224915 57 107 3.0 6.0 0.00 0.00 0.00 53 1029.7
20181018224827 57 107 3.0 6.0 0.00 0.00 0.00 53 1029.7
20181018224716 57 110 3.0 6.0 0.00 0.00 0.00 52 1029.8
20181018224631 57 112 3.0 6.0 0.00 0.00 0.00 52 1029.8
20181018224523 57 112 3.0 6.0 0.00 0.00 0.00 52 1029.8
20181018224414 58 112 3.0 6.0 0.00 0.00 0.00 52 1029.9
20181018224325 58 113 2.0 4.0 0.00 0.00 0.00 52 1029.9
20181018224212 58 113 2.0 7.0 0.00 0.00 0.00 53 1029.9
20181018224127 58 113 2.0 7.0 0.00 0.00 0.00 53 1029.9
20181018224018 58 108 2.0 7.0 0.00 0.00 0.00 53 1029.9
20181018223931 58 108 1.0 7.0 0.00 0.00 0.00 53 1029.8
20181018223823 58 106 2.0 7.0 0.00 0.00 0.00 53 1029.8
20181018223731 58 106 1.0 7.0 0.00 0.00 0.00 52 1029.8
20181018223627 58 106 1.0 7.0 0.00 0.00 0.00 53 1029.9
20181018223518 58 106 2.0 7.0 0.00 0.00 0.00 52 1029.8
20181018223429 58 106 2.0 7.0 0.00 0.00 0.00 52 1029.8
20181018223320 58 125 2.0 7.0 0.00 0.00 0.00 52 1029.8
20181018223228 58 125 2.0 7.0 0.00 0.00 0.00 53 1029.8
20181018223123 58 127 3.0 7.0 0.00 0.00 0.00 52 1029.9
20181018223014 58 120 2.0 5.0 0.00 0.00 0.00 55 1029.8
20181018222926 58 131 1.0 5.0 0.00 0.00 0.00 53 1029.9
20181018222818 58 131 3.0 5.0 0.00 0.00 0.00 54 1029.9
20181018222726 58 132 2.0 5.0 0.00 0.00 0.00 54 1029.8
20181018222620 58 124 2.0 4.0 0.00 0.00 0.00 55 1029.8
20181018222512 58 125 2.0 4.0 0.00 0.00 0.00 54 1029.7
20181018222422 58 126 2.0 4.0 0.00 0.00 0.00 54 1029.7
20181018222314 58 80 2.0 4.0 0.00 0.00 0.00 54 1029.7
20181018222222 58 102 1.0 6.0 0.00 0.00 0.00 55 1029.7
20181018222118 58 111 1.0 6.0 0.00 0.00 0.00 54 1029.7
20181018222029 58 103 1.0 6.0 0.00 0.00 0.00 54 1029.7
20181018221921 58 86 1.0 6.0 0.00 0.00 0.00 52 1029.7
20181018221812 58 86 2.0 6.0 0.00 0.00 0.00 52 1029.7
20181018221721 58 92 3.0 6.0 0.00 0.00 0.00 51 1029.7
20181018221617 58 87 3.0 6.0 0.00 0.00 0.00 52 1029.7
20181018221529 58 81 3.0 6.0 0.00 0.00 0.00 51 1029.8
20181018221421 58 69 2.0 6.0 0.00 0.00 0.00 52 1029.9
20181018221312 59 98 1.0 6.0 0.00 0.00 0.00 52 1029.9
20181018221220 59 98 2.0 6.0 0.00 0.00 0.00 52 1029.9
20181018221115 59 98 2.0 6.0 0.00 0.00 0.00 51 1030.0
20181018221027 59 99 2.0 6.0 0.00 0.00 0.00 52 1029.9
20181018220919 59 109 2.0 4.0 0.00 0.00 0.00 52 1030.0
20181018220831 59 114 1.0 3.0 0.00 0.00 0.00 53 1030.0
20181018220718 59 114 0.0 2.0 0.00 0.00 0.00 54 1030.0
20181018220613 59 114 0.0 3.0 0.00 0.00 0.00 54 1030.1
20181018220524 59 114 0.0 3.0 0.00 0.00 0.00 55 1030.1
20181018220415 59 114 0.0 4.0 0.00 0.00 0.00 54 1030.1
20181018220326 59 114 0.0 4.0 0.00 0.00 0.00 55 1030.1
20181018220213 59 114 0.0 4.0 0.00 0.00 0.00 57 1030.0
20181018220128 59 114 0.0 4.0 0.00 0.00 0.00 55 1030.0
20181018220018 59 114 1.0 4.0 0.00 0.00 0.00 54 1030.0
20181018215931 59 114 1.0 4.0 0.00 0.00 0.00 54 1030.0
20181018215823 59 114 1.0 4.0 0.00 0.00 0.00 53 1030.0
20181018215741 59 114 1.0 4.0 0.00 0.00 0.00 53 1030.0
20181018215624 59 114 2.0 4.0 0.00 0.00 0.00 53 1030.1
20181018215515 59 109 1.0 4.0 0.00 0.00 0.00 54 1030.1
20181018215426 59 109 0.0 2.0 0.00 0.00 0.00 54 1030.1
20181018215318 59 109 0.0 2.0 0.00 0.00 0.00 55 1030.1
20181018215226 59 109 1.0 2.0 0.00 0.00 0.00 53 1030.1
20181018215122 59 109 1.0 3.0 0.00 0.00 0.00 52 1030.1
20181018215013 59 109 1.0 3.0 0.00 0.00 0.00 51 1030.2
20181018214924 59 109 1.0 3.0 0.00 0.00 0.00 51 1030.2
20181018214817 59 109 1.0 4.0 0.00 0.00 0.00 51 1030.2
20181018214725 59 109 0.0 4.0 0.00 0.00 0.00 53 1030.2
20181018214621 59 109 0.0 4.0 0.00 0.00 0.00 52 1030.3
20181018214512 59 109 1.0 4.0 0.00 0.00 0.00 52 1030.4
20181018214423 59 109 1.0 4.0 0.00 0.00 0.00 51 1030.4
20181018214314 59 109 1.0 4.0 0.00 0.00 0.00 50 1030.4
20181018214222 59 109 1.0 4.0 0.00 0.00 0.00 51 1030.4
20181018214116 59 109 2.0 4.0 0.00 0.00 0.00 51 1030.4
20181018214028 59 109 2.0 4.0 0.00 0.00 0.00 51 1030.3
20181018213921 59 109 1.0 4.0 0.00 0.00 0.00 52 1030.3
20181018213813 59 109 1.0 4.0 0.00 0.00 0.00 51 1030.3
20181018213721 59 109 2.0 4.0 0.00 0.00 0.00 50 1030.3
20181018213616 59 109 2.0 4.0 0.00 0.00 0.00 50 1030.4
20181018213527 59 111 2.0 4.0 0.00 0.00 0.00 51 1030.4
20181018213419 60 111 1.0 4.0 0.00 0.00 0.00 51 1030.4
20181018213331 60 111 2.0 4.0 0.00 0.00 0.00 51 1030.4
20181018213219 60 112 2.0 5.0 0.00 0.00 0.00 50 1030.5
20181018213114 60 107 2.0 5.0 0.00 0.00 0.00 49 1030.5
20181018213025 60 106 1.0 5.0 0.00 0.00 0.00 49 1030.5
20181018212917 60 106 2.0 5.0 0.00 0.00 0.00 49 1030.4
20181018212829 60 105 2.0 5.0 0.00 0.00 0.00 48 1030.4
20181018212716 61 80 2.0 5.0 0.00 0.00 0.00 48 1030.4
20181018212613 61 80 2.0 8.0 0.00 0.00 0.00 47 1030.5
20181018212525 61 80 2.0 8.0 0.00 0.00 0.00 47 1030.5
20181018212416 61 83 1.0 8.0 0.00 0.00 0.00 49 1030.5
20181018212328 61 88 2.0 8.0 0.00 0.00 0.00 47 1030.5
20181018212217 61 103 3.0 8.0 0.00 0.00 0.00 46 1030.5
20181018212113 62 80 2.0 8.0 0.00 0.00 0.00 47 1030.5
20181018212024 62 78 3.0 8.0 0.00 0.00 0.00 47 1030.5
20181018211916 62 169 3.0 8.0 0.00 0.00 0.00 47 1030.4
20181018211830 63 166 2.0 8.0 0.00 0.00 0.00 50 1030.4
20181018211717 63 133 1.0 4.0 0.00 0.00 0.00 52 1030.5
20181018211612 63 133 0.0 4.0 0.00 0.00 0.00 52 1030.4
20181018211523 63 133 0.0 4.0 0.00 0.00 0.00 52 1030.4
20181018211416 63 133 0.0 4.0 0.00 0.00 0.00 51 1030.4
20181018211327 63 133 1.0 4.0 0.00 0.00 0.00 51 1030.3
20181018211216 62 133 2.0 4.0 0.00 0.00 0.00 50 1030.3
20181018211112 62 133 2.0 4.0 0.00 0.00 0.00 51 1030.4
20181018211023 62 133 1.0 3.0 0.00 0.00 0.00 51 1030.4
20181018210914 62 134 1.0 3.0 0.00 0.00 0.00 53 1030.3
20181018210827 62 134 1.0 3.0 0.00 0.00 0.00 53 1030.3
20181018210714 62 134 1.0 5.0 0.00 0.00 0.00 53 1030.3
20181018210626 62 134 1.0 5.0 0.00 0.00 0.00 53 1030.2
20181018210521 62 134 1.0 5.0 0.00 0.00 0.00 53 1030.2
20181018210413 61 134 1.0 5.0 0.00 0.00 0.00 54 1030.2
20181018210325 61 189 0.0 5.0 0.00 0.00 0.00 54 1030.2
20181018210213 61 189 1.0 7.0 0.00 0.00 0.00 53 1030.3
20181018210124 61 189 2.0 7.0 0.00 0.00 0.00 53 1030.3
20181018210018 61 72 2.0 7.0 0.00 0.00 0.00 50 1030.4
20181018205930 61 72 1.0 7.0 0.00 0.00 0.00 52 1030.5
20181018205822 61 72 1.0 7.0 0.00 0.00 0.00 54 1030.4
20181018205740 61 72 1.0 7.0 0.00 0.00 0.00 55 1030.4
20181018205619 61 72 1.0 7.0 0.00 0.00 0.00 53 1030.4
20181018205515 61 72 3.0 7.0 0.00 0.00 0.00 51 1030.5
20181018205425 61 66 4.0 8.0 0.00 0.00 0.00 52 1030.4
20181018205317 61 55 3.0 6.0 0.00 0.00 0.00 52 1030.4
20181018205224 61 28 1.0 5.0 0.00 0.00 0.00 52 1030.5
20181018205117 61 176 1.0 6.0 0.00 0.00 0.00 53 1030.5
20181018205011 61 176 1.0 6.0 0.00 0.00 0.00 52 1030.6
20181018204923 61 176 1.0 6.0 0.00 0.00 0.00 52 1030.6
20181018204816 61 176 2.0 6.0 0.00 0.00 0.00 52 1030.6
20181018204724 61 176 2.0 6.0 0.00 0.00 0.00 52 1030.7
20181018204615 60 113 1.0 7.0 0.00 0.00 0.00 52 1030.7
20181018204530 60 113 2.0 7.0 0.00 0.00 0.00 52 1030.7
20181018204421 60 91 2.0 7.0 0.00 0.00 0.00 51 1030.7
20181018204313 60 91 3.0 7.0 0.00 0.00 0.00 52 1030.7
20181018204220 60 79 4.0 7.0 0.00 0.00 0.00 51 1030.7
20181018204112 60 123 3.0 7.0 0.00 0.00 0.00 52 1030.7
20181018204026 60 159 3.0 7.0 0.00 0.00 0.00 52 1030.7
20181018203917 60 128 4.0 7.0 0.00 0.00 0.00 51 1030.8
20181018203830 60 151 4.0 7.0 0.00 0.00 0.00 52 1030.8
20181018203718 60 149 4.0 6.0 0.00 0.00 0.00 50 1030.9
20181018203630 60 205 3.0 6.0 0.00 0.00 0.00 50 1030.9
20181018203524 61 168 3.0 7.0 0.00 0.00 0.00 50 1030.9
20181018203416 61 98 3.0 6.0 0.00 0.00 0.00 51 1031.0
20181018203328 61 153 3.0 6.0 0.00 0.00 0.00 52 1031.0
20181018203216 61 188 3.0 6.0 0.00 0.00 0.00 51 1031.0
20181018203128 61 182 3.0 6.0 0.00 0.00 0.00 51 1031.0
20181018203024 61 175 1.0 5.0 0.00 0.00 0.00 53 1031.0
20181018202915 61 226 0.0 4.0 0.00 0.00 0.00 53 1031.0
20181018202828 61 226 0.0 5.0 0.00 0.00 0.00 53 1031.0
20181018202716 61 226 1.0 5.0 0.00 0.00 0.00 54 1031.0
20181018202628 60 226 2.0 6.0 0.00 0.00 0.00 54 1031.1
20181018202523 61 196 2.0 6.0 0.00 0.00 0.00 54 1031.1
20181018202414 61 194 1.0 6.0 0.00 0.00 0.00 57 1031.1
20181018202324 61 177 1.0 6.0 0.00 0.00 0.00 56 1031.1
20181018202213 61 191 2.0 6.0 0.00 0.00 0.00 57 1031.1
20181018202125 61 191 2.0 6.0 0.00 0.00 0.00 56 1031.1
20181018202020 61 248 2.0 6.0 0.00 0.00 0.00 57 1031.1
20181018201913 60 299 2.0 6.0 0.00 0.00 0.00 55 1031.0
20181018201825 60 355 2.0 6.0 0.00 0.00 0.00 54 1031.0
20181018201712 60 23 1.0 3.0 0.00 0.00 0.00 57 1031.0
20181018201623 60 10 1.0 3.0 0.00 0.00 0.00 56 1031.0
20181018201517 59 18 1.0 3.0 0.00 0.00 0.00 56 1030.9
20181018201430 59 18 2.0 3.0 0.00 0.00 0.00 56 1030.9
20181018201322 59 10 2.0 3.0 0.00 0.00 0.00 56 1030.9
20181018201229 59 109 1.0 3.0 0.00 0.00 0.00 57 1030.9
20181018201120 59 109 2.0 3.0 0.00 0.00 0.00 57 1030.8
20181018201015 59 197 2.0 3.0 0.00 0.00 0.00 58 1030.9
20181018200925 59 115 1.0 3.0 0.00 0.00 0.00 58 1030.8
20181018200818 59 115 1.0 6.0 0.00 0.00 0.00 58 1030.8
20181018200726 59 115 1.0 6.0 0.00 0.00 0.00 58 1030.8
20181018200618 59 63 1.0 6.0 0.00 0.00 0.00 59 1030.8
20181018200512 59 63 1.0 6.0 0.00 0.00 0.00 59 1030.8
20181018200424 59 63 0.0 6.0 0.00 0.00 0.00 57 1030.8
20181018200314 59 67 1.0 9.0 0.00 0.00 0.00 57 1030.8
20181018200222 59 67 2.0 9.0 0.00 0.00 0.00 56 1030.8
20181018200130 59 67 2.0 9.0 0.00 0.00 0.00 56 1030.8
20181018200026 59 86 2.0 9.0 0.00 0.00 0.00 56 1030.8
20181018195918 59 83 1.0 9.0 0.00 0.00 0.00 57 1030.8
20181018195831 59 55 1.0 9.0 0.00 0.00 0.00 57 1030.8
20181018195729 59 325 2.0 9.0 0.00 0.00 0.00 56 1030.8
20181018195625 59 78 3.0 9.0 0.00 0.00 0.00 55 1030.8
20181018195521 59 62 3.0 9.0 0.00 0.00 0.00 55 1030.8
20181018195413 59 51 2.0 9.0 0.00 0.00 0.00 55 1030.9
20181018195323 59 38 3.0 6.0 0.00 0.00 0.00 56 1030.9
20181018195231 59 70 2.0 6.0 0.00 0.00 0.00 56 1030.9
20181018195122 59 42 1.0 6.0 0.00 0.00 0.00 57 1030.9
20181018195018 59 32 1.0 6.0 0.00 0.00 0.00 57 1031.0
20181018194929 59 51 2.0 6.0 0.00 0.00 0.00 56 1031.0
20181018194821 59 65 2.0 6.0 0.00 0.00 0.00 56 1031.0
20181018194729 59 83 2.0 6.0 0.00 0.00 0.00 55 1031.0
20181018194621 59 71 2.0 6.0 0.00 0.00 0.00 56 1031.1
20181018194517 59 75 1.0 6.0 0.00 0.00 0.00 57 1031.1
20181018194428 59 75 1.0 6.0 0.00 0.00 0.00 58 1031.1
20181018194320 59 78 0.0 6.0 0.00 0.00 0.00 58 1031.1
20181018194229 59 78 1.0 6.0 0.00 0.00 0.00 59 1031.0
20181018194122 59 80 2.0 6.0 0.00 0.00 0.00 57 1031.1
20181018194017 59 73 3.0 6.0 0.00 0.00 0.00 55 1031.1
20181018193929 59 76 2.0 5.0 0.00 0.00 0.00 57 1031.0
20181018193821 59 82 1.0 3.0 0.00 0.00 0.00 59 1031.1
20181018193728 59 29 1.0 2.0 0.00 0.00 0.00 59 1031.1
20181018193619 59 48 1.0 2.0 0.00 0.00 0.00 59 1031.1
20181018193516 59 56 1.0 2.0 0.00 0.00 0.00 59 1031.1
20181018193427 59 56 0.0 2.0 0.00 0.00 0.00 60 1031.1
20181018193318 59 56 0.0 4.0 0.00 0.00 0.00 58 1031.2
20181018193227 59 56 0.0 4.0 0.00 0.00 0.00 59 1031.2
20181018193120 59 56 0.0 4.0 0.00 0.00 0.00 59 1031.2
20181018193015 58 56 1.0 5.0 0.00 0.00 0.00 57 1031.2
20181018192927 58 56 1.0 9.0 0.00 0.00 0.00 57 1031.3
20181018192819 58 56 1.0 9.0 0.00 0.00 0.00 59 1031.3
20181018192726 58 67 1.0 9.0 0.00 0.00 0.00 59 1031.3
20181018192617 58 65 1.0 9.0 0.00 0.00 0.00 58 1031.4
20181018192513 58 90 1.0 9.0 0.00 0.00 0.00 57 1031.3
20181018192423 58 273 1.0 9.0 0.00 0.00 0.00 56 1031.3
20181018192315 58 47 2.0 9.0 0.00 0.00 0.00 56 1031.3
20181018192222 58 74 3.0 9.0 0.00 0.00 0.00 56 1031.4
20181018192114 59 71 1.0 9.0 0.00 0.00 0.00 57 1031.4
20181018192024 58 71 1.0 7.0 0.00 0.00 0.00 58 1031.4
20181018191921 58 71 3.0 7.0 0.00 0.00 0.00 56 1031.4
20181018191811 58 86 2.0 7.0 0.00 0.00 0.00 58 1031.5
20181018191719 58 88 1.0 7.0 0.00 0.00 0.00 57 1031.5
20181018191631 58 88 0.0 7.0 0.00 0.00 0.00 59 1031.4
20181018191522 58 88 1.0 7.0 0.00 0.00 0.00 57 1031.4
20181018191418 58 84 2.0 8.0 0.00 0.00 0.00 57 1031.4
20181018191329 58 10 2.0 8.0 0.00 0.00 0.00 57 1031.4
20181018191217 58 94 1.0 8.0 0.00 0.00 0.00 57 1031.4
20181018191128 58 22 1.0 8.0 0.00 0.00 0.00 57 1031.4
20181018191019 58 118 1.0 8.0 0.00 0.00 0.00 58 1031.4
20181018190914 57 101 1.0 8.0 0.00 0.00 0.00 58 1031.4
20181018190827 57 102 1.0 8.0 0.00 0.00 0.00 58 1031.4
20181018190714 57 76 3.0 8.0 0.00 0.00 0.00 57 1031.5
20181018190625 57 75 4.0 8.0 0.00 0.00 0.00 57 1031.5
20181018190516 57 73 3.0 7.0 0.00 0.00 0.00 57 1031.6
20181018190430 57 81 3.0 6.0 0.00 0.00 0.00 59 1031.7
20181018190322 57 136 1.0 7.0 0.00 0.00 0.00 58 1031.7
20181018190212 57 99 1.0 7.0 0.00 0.00 0.00 58 1031.8
20181018190123 57 99 1.0 8.0 0.00 0.00 0.00 57 1031.8
20181018190014 57 99 2.0 8.0 0.00 0.00 0.00 57 1031.8
20181018185930 57 99 2.0 8.0 0.00 0.00 0.00 59 1031.7
20181018185823 57 87 1.0 8.0 0.00 0.00 0.00 58 1031.7
20181018185742 57 83 1.0 8.0 0.00 0.00 0.00 57 1031.7
20181018185619 57 83 2.0 8.0 0.00 0.00 0.00 56 1031.7
20181018185511 57 25 3.0 8.0 0.00 0.00 0.00 56 1031.7
20181018185426 57 84 4.0 8.0 0.00 0.00 0.00 56 1031.7
20181018185319 57 88 4.0 8.0 0.00 0.00 0.00 55 1031.8
20181018185226 57 92 2.0 8.0 0.00 0.00 0.00 55 1031.8
20181018185118 57 60 3.0 8.0 0.00 0.00 0.00 55 1031.8
20181018185029 57 76 3.0 8.0 0.00 0.00 0.00 54 1031.9
20181018184925 57 70 3.0 7.0 0.00 0.00 0.00 54 1031.9
20181018184818 57 75 3.0 7.0 0.00 0.00 0.00 54 1032.0
20181018184725 57 29 2.0 7.0 0.00 0.00 0.00 55 1032.0
20181018184617 58 131 2.0 7.0 0.00 0.00 0.00 54 1032.0
20181018184528 58 95 3.0 7.0 0.00 0.00 0.00 53 1032.2
20181018184424 58 71 3.0 7.0 0.00 0.00 0.00 54 1032.2
20181018184315 58 64 4.0 7.0 0.00 0.00 0.00 53 1032.3
20181018184222 58 92 3.0 7.0 0.00 0.00 0.00 54 1032.4
20181018184114 58 71 1.0 8.0 0.00 0.00 0.00 55 1032.5
20181018184025 58 79 2.0 8.0 0.00 0.00 0.00 56 1032.5
20181018183922 58 79 2.0 8.0 0.00 0.00 0.00 57 1032.5
20181018183814 58 34 1.0 8.0 0.00 0.00 0.00 57 1032.5
20181018183720 58 75 1.0 8.0 0.00 0.00 0.00 56 1032.5
20181018183612 58 80 1.0 8.0 0.00 0.00 0.00 54 1032.6
20181018183522 58 80 2.0 8.0 0.00 0.00 0.00 56 1032.6
20181018183418 58 81 2.0 8.0 0.00 0.00 0.00 55 1032.6
20181018183329 58 69 2.0 9.0 0.00 0.00 0.00 57 1032.6
20181018183216 58 123 1.0 9.0 0.00 0.00 0.00 58 1032.6
20181018183127 58 123 1.0 9.0 0.00 0.00 0.00 56 1032.6
20181018183018 58 123 1.0 9.0 0.00 0.00 0.00 56 1032.7
20181018182914 58 123 2.0 9.0 0.00 0.00 0.00 54 1032.7
20181018182826 58 123 3.0 9.0 0.00 0.00 0.00 53 1032.7
20181018182714 58 98 3.0 9.0 0.00 0.00 0.00 53 1032.8
20181018182626 58 101 4.0 9.0 0.00 0.00 0.00 54 1032.8
20181018182516 58 50 2.0 9.0 0.00 0.00 0.00 59 1032.8
20181018182412 58 61 1.0 5.0 0.00 0.00 0.00 58 1032.8
20181018182324 58 61 1.0 5.0 0.00 0.00 0.00 57 1032.8
20181018182211 58 60 3.0 5.0 0.00 0.00 0.00 55 1032.7
20181018182123 58 77 2.0 5.0 0.00 0.00 0.00 56 1032.7
20181018182014 58 74 2.0 4.0 0.00 0.00 0.00 57 1032.8
20181018181929 58 62 1.0 4.0 0.00 0.00 0.00 57 1032.8
20181018181822 58 67 2.0 4.0 0.00 0.00 0.00 57 1032.8
20181018181730 58 19 1.0 4.0 0.00 0.00 0.00 59 1032.8
20181018181622 58 71 1.0 4.0 0.00 0.00 0.00 60 1032.8
20181018181513 58 71 2.0 4.0 0.00 0.00 0.00 59 1032.8
20181018181428 58 69 2.0 4.0 0.00 0.00 0.00 58 1032.8
20181018181319 58 92 2.0 4.0 0.00 0.00 0.00 57 1032.8
20181018181228 58 92 2.0 4.0 0.00 0.00 0.00 57 1032.8
20181018181119 58 92 2.0 4.0 0.00 0.00 0.00 58 1032.8
20181018181011 57 83 2.0 4.0 0.00 0.00 0.00 56 1032.8
20181018180927 57 348 2.0 4.0 0.00 0.00 0.00 58 1032.8
20181018180820 57 115 1.0 4.0 0.00 0.00 0.00 58 1032.8
20181018180727 57 115 1.0 4.0 0.00 0.00 0.00 59 1032.8
20181018180619 57 115 1.0 4.0 0.00 0.00 0.00 60 1032.8
20181018180530 57 115 1.0 8.0 0.00 0.00 0.00 60 1032.8
20181018180425 57 69 1.0 8.0 0.00 0.00 0.00 60 1032.9
20181018180316 56 149 1.0 8.0 0.00 0.00 0.00 60 1032.9
20181018180224 56 149 1.0 8.0 0.00 0.00 0.00 59 1032.9
20181018180115 56 95 2.0 8.0 0.00 0.00 0.00 58 1032.9
20181018180026 56 67 2.0 8.0 0.00 0.00 0.00 59 1032.9
20181018175923 56 146 1.0 8.0 0.00 0.00 0.00 59 1032.9